Time,TemperatureF,DewpointF,PressureIn,WindDirection,WindDirectionDegrees,WindSpeedMPH,WindSpeedGustMPH,Humidity,HourlyPrecipIn,Conditions,Clouds,dailyrainin,SoftwareType,DateUTC
2013-03-18 00:00:00,66.9,59.8,30.07,ESE,103,0.0,0.0,78,0.00,,,0.00,Wunderground v.1.15,2013-03-18 04:00:00,
2013-03-18 00:02:00,66.9,59.8,30.08,ESE,103,0.0,0.0,78,0.00,,,0.00,Wunderground v.1.15,2013-03-18 04:02:00,
2013-03-18 00:03:00,66.8,59.7,30.08,ESE,103,0.0,0.0,78,0.00,,,0.00,Wunderground v.1.15,2013-03-18 04:03:00,
2013-03-18 00:05:00,66.6,59.9,30.08,ESE,103,0.0,0.0,79,0.00,,,0.00,Wunderground v.1.15,2013-03-18 04:05:00,
2013-03-18 00:09:00,66.3,59.9,30.07,ESE,103,0.0,0.0,80,0.00,,,0.00,Wunderground v.1.15,2013-03-18 04:09:00,
2013-03-18 00:10:00,66.3,59.9,30.07,ESE,103,0.0,0.0,80,0.00,,,0.00,Wunderground v.1.15,2013-03-18 04:10:00,
2013-03-18 00:11:00,66.2,59.8,30.07,ESE,103,0.0,0.0,80,0.00,,,0.00,Wunderground v.1.15,2013-03-18 04:11:00,
2013-03-18 00:14:00,66.0,59.7,30.07,ESE,103,0.0,0.0,80,0.00,,,0.00,Wunderground v.1.15,2013-03-18 04:14:00,
2013-03-18 00:18:00,65.8,59.8,30.07,ESE,103,0.0,0.0,81,0.00,,,0.00,Wunderground v.1.15,2013-03-18 04:18:00,
2013-03-18 00:19:00,65.7,59.7,30.07,ESE,103,0.0,0.0,81,0.00,,,0.00,Wunderground v.1.15,2013-03-18 04:19:00,
2013-03-18 00:20:00,65.6,59.6,30.07,ESE,103,0.0,0.0,81,0.00,,,0.00,Wunderground v.1.15,2013-03-18 04:20:00,
2013-03-18 00:24:00,65.2,59.6,30.07,ESE,103,0.0,0.0,82,0.00,,,0.00,Wunderground v.1.15,2013-03-18 04:24:00,
2013-03-18 00:25:00,65.1,59.5,30.07,ESE,103,0.0,0.0,82,0.00,,,0.00,Wunderground v.1.15,2013-03-18 04:25:00,
2013-03-18 00:26:00,65.0,59.4,30.07,ESE,103,0.0,0.0,82,0.00,,,0.00,Wunderground v.1.15,2013-03-18 04:26:00,
2013-03-18 00:27:00,64.9,59.6,30.07,ESE,103,0.0,0.0,83,0.00,,,0.00,Wunderground v.1.15,2013-03-18 04:27:00,
2013-03-18 00:31:00,64.6,59.3,30.06,ESE,103,0.0,0.0,83,0.00,,,0.00,Wunderground v.1.15,2013-03-18 04:31:00,
2013-03-18 00:33:00,64.5,59.6,30.06,ESE,103,0.0,0.0,84,0.00,,,0.00,Wunderground v.1.15,2013-03-18 04:33:00,
2013-03-18 00:35:00,64.4,59.8,30.06,ESE,103,0.0,0.0,85,0.00,,,0.00,Wunderground v.1.15,2013-03-18 04:35:00,
2013-03-18 00:36:00,64.3,59.7,30.06,ESE,103,0.0,0.0,85,0.00,,,0.00,Wunderground v.1.15,2013-03-18 04:36:00,
2013-03-18 00:39:00,64.3,59.7,30.06,ESE,103,0.0,0.0,85,0.00,,,0.00,Wunderground v.1.15,2013-03-18 04:39:00,
2013-03-18 00:41:00,64.3,59.7,30.06,ESE,103,0.0,0.0,85,0.00,,,0.00,Wunderground v.1.15,2013-03-18 04:41:00,
2013-03-18 00:42:00,64.2,59.6,30.06,ESE,103,0.0,0.0,85,0.00,,,0.00,Wunderground v.1.15,2013-03-18 04:42:00,
2013-03-18 00:44:00,64.2,59.6,30.06,ESE,103,0.0,0.0,85,0.00,,,0.00,Wunderground v.1.15,2013-03-18 04:44:00,
2013-03-18 00:46:00,64.1,59.8,30.06,ESE,103,0.0,0.0,86,0.00,,,0.00,Wunderground v.1.15,2013-03-18 04:46:00,
2013-03-18 00:47:00,64.1,59.8,30.06,ESE,103,0.0,0.0,86,0.00,,,0.00,Wunderground v.1.15,2013-03-18 04:47:00,
2013-03-18 00:50:00,64.0,59.7,30.06,ESE,103,0.0,0.0,86,0.00,,,0.00,Wunderground v.1.15,2013-03-18 04:50:00,
2013-03-18 00:52:00,64.0,59.7,30.06,ESE,103,0.0,0.0,86,0.00,,,0.00,Wunderground v.1.15,2013-03-18 04:52:00,
2013-03-18 00:54:00,63.9,59.6,30.06,ESE,103,0.0,0.0,86,0.00,,,0.00,Wunderground v.1.15,2013-03-18 04:54:00,
2013-03-18 00:55:00,63.9,59.6,30.06,ESE,103,0.0,0.0,86,0.00,,,0.00,Wunderground v.1.15,2013-03-18 04:55:00,
2013-03-18 01:00:00,63.6,59.7,30.05,ESE,103,0.0,0.0,87,0.00,,,0.00,Wunderground v.1.15,2013-03-18 05:00:00,
2013-03-18 01:06:00,63.5,59.6,30.05,ESE,103,0.0,0.0,87,0.00,,,0.00,Wunderground v.1.15,2013-03-18 05:06:00,
2013-03-18 01:09:00,63.6,59.7,30.05,ESE,103,0.0,0.0,87,0.00,,,0.00,Wunderground v.1.15,2013-03-18 05:09:00,
2013-03-18 01:11:00,63.6,59.7,30.05,ESE,103,0.0,0.0,87,0.00,,,0.00,Wunderground v.1.15,2013-03-18 05:11:00,
2013-03-18 01:12:00,63.6,59.3,30.05,ESE,103,0.0,0.0,86,0.00,,,0.00,Wunderground v.1.15,2013-03-18 05:12:00,
2013-03-18 01:15:00,63.6,59.7,30.05,ESE,103,0.0,0.0,87,0.00,,,0.00,Wunderground v.1.15,2013-03-18 05:15:00,
2013-03-18 01:18:00,63.5,59.6,30.05,ESE,103,0.0,0.0,87,0.00,,,0.00,Wunderground v.1.15,2013-03-18 05:18:00,
2013-03-18 01:19:00,63.5,59.6,30.05,ESE,103,0.0,0.0,87,0.00,,,0.00,Wunderground v.1.15,2013-03-18 05:19:00,
2013-03-18 01:20:00,63.5,59.6,30.05,ESE,103,0.0,0.0,87,0.00,,,0.00,Wunderground v.1.15,2013-03-18 05:20:00,
2013-03-18 01:25:00,63.7,60.4,30.05,ESE,103,0.0,0.0,89,0.00,,,0.00,Wunderground v.1.15,2013-03-18 05:25:00,
2013-03-18 01:27:00,63.8,60.8,30.05,ESE,103,0.0,0.0,90,0.00,,,0.00,Wunderground v.1.15,2013-03-18 05:27:00,
2013-03-18 01:28:00,63.8,60.8,30.05,ESE,103,0.0,0.0,90,0.00,,,0.00,Wunderground v.1.15,2013-03-18 05:28:00,
2013-03-18 01:32:00,63.9,60.9,30.05,ESE,103,0.0,0.0,90,0.00,,,0.00,Wunderground v.1.15,2013-03-18 05:32:00,
2013-03-18 01:33:00,63.9,60.9,30.05,ESE,103,0.0,0.0,90,0.00,,,0.00,Wunderground v.1.15,2013-03-18 05:33:00,
2013-03-18 01:38:00,63.9,60.9,30.05,ESE,103,0.0,0.0,90,0.00,,,0.00,Wunderground v.1.15,2013-03-18 05:38:00,
2013-03-18 01:40:00,63.8,60.5,30.05,ESE,103,0.0,0.0,89,0.00,,,0.00,Wunderground v.1.15,2013-03-18 05:40:00,
2013-03-18 01:43:00,63.7,60.7,30.05,ESE,103,0.0,0.0,90,0.00,,,0.00,Wunderground v.1.15,2013-03-18 05:43:00,
2013-03-18 01:47:00,63.6,60.6,30.05,ESE,103,0.0,0.0,90,0.00,,,0.00,Wunderground v.1.15,2013-03-18 05:47:00,
2013-03-18 01:49:00,63.6,60.6,30.05,ESE,103,0.0,0.0,90,0.00,,,0.00,Wunderground v.1.15,2013-03-18 05:49:00,
2013-03-18 01:50:00,63.5,60.5,30.05,ESE,103,0.0,0.0,90,0.00,,,0.00,Wunderground v.1.15,2013-03-18 05:50:00,
2013-03-18 01:52:00,63.5,60.5,30.05,ESE,103,0.0,0.0,90,0.00,,,0.00,Wunderground v.1.15,2013-03-18 05:52:00,
2013-03-18 01:55:00,63.7,60.4,30.05,ESE,103,0.0,0.0,89,0.00,,,0.00,Wunderground v.1.15,2013-03-18 05:55:00,
2013-03-18 01:56:00,63.7,60.4,30.05,ESE,103,0.0,0.0,89,0.00,,,0.00,Wunderground v.1.15,2013-03-18 05:56:00,
2013-03-18 01:57:00,63.7,60.4,30.05,ESE,103,0.0,0.0,89,0.00,,,0.00,Wunderground v.1.15,2013-03-18 05:57:00,
2013-03-18 01:58:00,63.7,60.4,30.05,ESE,103,0.0,0.0,89,0.00,,,0.00,Wunderground v.1.15,2013-03-18 05:58:00,
2013-03-18 02:01:00,63.8,60.5,30.05,ESE,103,0.0,0.0,89,0.00,,,0.00,Wunderground v.1.15,2013-03-18 06:01:00,
2013-03-18 02:02:00,63.8,60.5,30.05,ESE,103,0.0,0.0,89,0.00,,,0.00,Wunderground v.1.15,2013-03-18 06:02:00,
2013-03-18 02:04:00,63.8,60.5,30.04,ESE,103,0.0,0.0,89,0.00,,,0.00,Wunderground v.1.15,2013-03-18 06:04:00,
2013-03-18 02:06:00,63.8,60.5,30.04,ESE,103,0.0,0.0,89,0.00,,,0.00,Wunderground v.1.15,2013-03-18 06:06:00,
2013-03-18 02:07:00,63.8,60.5,30.04,ESE,103,0.0,0.0,89,0.00,,,0.00,Wunderground v.1.15,2013-03-18 06:07:00,
2013-03-18 02:12:00,63.8,60.8,30.04,ESE,103,0.0,0.0,90,0.00,,,0.00,Wunderground v.1.15,2013-03-18 06:12:00,
2013-03-18 02:14:00,63.8,60.8,30.04,ESE,103,0.0,0.0,90,0.00,,,0.00,Wunderground v.1.15,2013-03-18 06:14:00,
2013-03-18 02:17:00,63.7,60.7,30.04,ESE,103,0.0,0.0,90,0.00,,,0.00,Wunderground v.1.15,2013-03-18 06:17:00,
2013-03-18 02:19:00,63.6,60.6,30.04,ESE,103,0.0,0.0,90,0.00,,,0.00,Wunderground v.1.15,2013-03-18 06:19:00,
2013-03-18 02:21:00,63.6,60.9,30.04,ESE,103,0.0,0.0,91,0.00,,,0.00,Wunderground v.1.15,2013-03-18 06:21:00,
2013-03-18 02:25:00,63.4,60.4,30.04,ESE,103,0.0,0.0,90,0.00,,,0.00,Wunderground v.1.15,2013-03-18 06:25:00,
2013-03-18 02:27:00,63.4,60.7,30.04,ESE,103,0.0,0.0,91,0.00,,,0.00,Wunderground v.1.15,2013-03-18 06:27:00,
2013-03-18 02:29:00,63.3,60.6,30.04,ESE,103,0.0,0.0,91,0.00,,,0.00,Wunderground v.1.15,2013-03-18 06:29:00,
2013-03-18 02:31:00,63.3,60.6,30.04,ESE,103,0.0,0.0,91,0.00,,,0.00,Wunderground v.1.15,2013-03-18 06:31:00,
2013-03-18 02:33:00,63.2,60.5,30.04,ESE,103,0.0,0.0,91,0.00,,,0.00,Wunderground v.1.15,2013-03-18 06:33:00,
2013-03-18 02:34:00,63.2,60.5,30.04,ESE,103,0.0,0.0,91,0.00,,,0.00,Wunderground v.1.15,2013-03-18 06:34:00,
2013-03-18 02:38:00,62.9,60.2,30.04,ESE,103,0.0,0.0,91,0.00,,,0.00,Wunderground v.1.15,2013-03-18 06:38:00,
2013-03-18 02:39:00,62.9,60.2,30.04,ESE,103,0.0,0.0,91,0.00,,,0.00,Wunderground v.1.15,2013-03-18 06:39:00,
2013-03-18 02:41:00,62.8,60.1,30.04,ESE,103,0.0,0.0,91,0.00,,,0.00,Wunderground v.1.15,2013-03-18 06:41:00,
2013-03-18 02:43:00,62.7,60.0,30.04,ESE,103,0.0,0.0,91,0.00,,,0.00,Wunderground v.1.15,2013-03-18 06:43:00,
2013-03-18 02:46:00,62.5,60.1,30.04,ESE,103,0.0,0.0,92,0.00,,,0.00,Wunderground v.1.15,2013-03-18 06:46:00,
2013-03-18 02:47:00,62.5,59.8,30.04,ESE,103,0.0,0.0,91,0.00,,,0.00,Wunderground v.1.15,2013-03-18 06:47:00,
2013-03-18 02:49:00,62.4,60.0,30.04,ESE,103,0.0,0.0,92,0.00,,,0.00,Wunderground v.1.15,2013-03-18 06:49:00,
2013-03-18 02:51:00,62.4,60.0,30.04,ESE,103,0.0,0.0,92,0.00,,,0.00,Wunderground v.1.15,2013-03-18 06:51:00,
2013-03-18 02:55:00,62.3,59.9,30.04,ESE,103,0.0,0.0,92,0.00,,,0.00,Wunderground v.1.15,2013-03-18 06:55:00,
2013-03-18 02:56:00,62.3,59.9,30.03,ESE,103,0.0,0.0,92,0.00,,,0.00,Wunderground v.1.15,2013-03-18 06:56:00,
2013-03-18 03:00:00,62.3,59.9,30.03,ESE,103,0.0,0.0,92,0.00,,,0.00,Wunderground v.1.15,2013-03-18 07:00:00,
2013-03-18 03:02:00,62.3,59.6,30.03,ESE,103,0.0,0.0,91,0.00,,,0.00,Wunderground v.1.15,2013-03-18 07:02:00,
2013-03-18 03:04:00,62.1,59.4,30.03,ESE,103,0.0,0.0,91,0.00,,,0.00,Wunderground v.1.15,2013-03-18 07:04:00,
2013-03-18 03:08:00,62.0,59.6,30.03,ESE,103,0.0,0.0,92,0.00,,,0.00,Wunderground v.1.15,2013-03-18 07:08:00,
2013-03-18 03:11:00,62.0,60.0,30.03,ESE,103,0.0,0.0,93,0.00,,,0.00,Wunderground v.1.15,2013-03-18 07:11:00,
2013-03-18 03:14:00,62.0,60.0,30.03,ESE,103,0.0,0.0,93,0.00,,,0.00,Wunderground v.1.15,2013-03-18 07:14:00,
2013-03-18 03:17:00,61.8,59.8,30.02,ESE,103,0.0,0.0,93,0.00,,,0.00,Wunderground v.1.15,2013-03-18 07:17:00,
2013-03-18 03:20:00,61.7,59.7,30.02,ESE,103,0.0,0.0,93,0.00,,,0.00,Wunderground v.1.15,2013-03-18 07:20:00,
2013-03-18 03:23:00,61.8,60.1,30.02,ESE,103,0.0,0.0,94,0.00,,,0.00,Wunderground v.1.15,2013-03-18 07:23:00,
2013-03-18 03:24:00,61.8,60.1,30.02,ESE,103,0.0,0.0,94,0.00,,,0.00,Wunderground v.1.15,2013-03-18 07:24:00,
2013-03-18 03:26:00,61.8,60.1,30.02,ESE,103,0.0,0.0,94,0.00,,,0.00,Wunderground v.1.15,2013-03-18 07:26:00,
2013-03-18 03:28:00,61.8,60.1,30.02,ESE,103,0.0,0.0,94,0.00,,,0.00,Wunderground v.1.15,2013-03-18 07:28:00,
2013-03-18 03:30:00,61.7,59.7,30.02,ESE,103,0.0,0.0,93,0.00,,,0.00,Wunderground v.1.15,2013-03-18 07:30:00,
2013-03-18 03:31:00,61.7,59.7,30.02,ESE,103,0.0,0.0,93,0.00,,,0.00,Wunderground v.1.15,2013-03-18 07:31:00,
2013-03-18 03:35:00,61.6,59.9,30.01,ESE,103,0.0,0.0,94,0.00,,,0.00,Wunderground v.1.15,2013-03-18 07:35:00,
2013-03-18 03:36:00,61.7,60.0,30.01,ESE,103,0.0,0.0,94,0.00,,,0.00,Wunderground v.1.15,2013-03-18 07:36:00,
2013-03-18 03:37:00,61.7,60.0,30.01,ESE,103,0.0,0.0,94,0.00,,,0.00,Wunderground v.1.15,2013-03-18 07:37:00,
2013-03-18 03:38:00,61.7,60.0,30.01,ESE,103,0.0,0.0,94,0.00,,,0.00,Wunderground v.1.15,2013-03-18 07:38:00,
2013-03-18 03:42:00,61.9,59.9,30.01,ESE,103,0.0,0.0,93,0.00,,,0.00,Wunderground v.1.15,2013-03-18 07:42:00,
2013-03-18 03:43:00,62.0,60.0,30.01,ESE,103,0.0,0.0,93,0.00,,,0.00,Wunderground v.1.15,2013-03-18 07:43:00,
2013-03-18 03:48:00,62.2,59.8,30.02,ESE,103,0.0,0.0,92,0.00,,,0.00,Wunderground v.1.15,2013-03-18 07:48:00,
2013-03-18 03:49:00,62.2,59.8,30.02,ESE,103,0.0,0.0,92,0.00,,,0.00,Wunderground v.1.15,2013-03-18 07:49:00,
2013-03-18 03:53:00,62.4,60.0,30.02,ESE,103,0.0,0.0,92,0.00,,,0.00,Wunderground v.1.15,2013-03-18 07:53:00,
2013-03-18 03:55:00,62.5,60.1,30.02,ESE,103,0.0,0.0,92,0.00,,,0.00,Wunderground v.1.15,2013-03-18 07:55:00,
2013-03-18 03:57:00,62.6,60.2,30.02,ESE,103,0.0,0.0,92,0.00,,,0.00,Wunderground v.1.15,2013-03-18 07:57:00,
2013-03-18 03:58:00,62.6,60.2,30.02,ESE,103,0.0,0.0,92,0.00,,,0.00,Wunderground v.1.15,2013-03-18 07:58:00,
2013-03-18 04:01:00,62.6,60.2,30.02,ESE,103,0.0,0.0,92,0.00,,,0.00,Wunderground v.1.15,2013-03-18 08:01:00,
2013-03-18 04:02:00,62.5,60.1,30.02,ESE,103,0.0,0.0,92,0.00,,,0.00,Wunderground v.1.15,2013-03-18 08:02:00,
2013-03-18 04:03:00,62.5,60.1,30.02,ESE,103,0.0,0.0,92,0.00,,,0.00,Wunderground v.1.15,2013-03-18 08:03:00,
2013-03-18 04:06:00,62.5,60.1,30.02,ESE,103,0.0,0.0,92,0.00,,,0.00,Wunderground v.1.15,2013-03-18 08:06:00,
2013-03-18 04:09:00,62.6,60.2,30.02,ESE,103,0.0,0.0,92,0.00,,,0.00,Wunderground v.1.15,2013-03-18 08:09:00,
2013-03-18 04:10:00,62.7,60.3,30.02,ESE,103,0.0,0.0,92,0.00,,,0.00,Wunderground v.1.15,2013-03-18 08:10:00,
2013-03-18 04:11:00,62.7,60.3,30.02,ESE,103,0.0,0.0,92,0.00,,,0.00,Wunderground v.1.15,2013-03-18 08:11:00,
2013-03-18 04:16:00,62.9,60.2,30.02,ESE,103,0.0,0.0,91,0.00,,,0.00,Wunderground v.1.15,2013-03-18 08:16:00,
2013-03-18 04:17:00,62.9,60.2,30.02,ESE,103,0.0,0.0,91,0.00,,,0.00,Wunderground v.1.15,2013-03-18 08:17:00,
2013-03-18 04:20:00,63.0,60.6,30.02,ESE,103,0.0,0.0,92,0.00,,,0.00,Wunderground v.1.15,2013-03-18 08:20:00,
2013-03-18 04:21:00,62.9,60.5,30.02,ESE,103,0.0,0.0,92,0.00,,,0.00,Wunderground v.1.15,2013-03-18 08:21:00,
2013-03-18 04:26:00,62.8,60.1,30.02,ESE,103,0.0,0.0,91,0.00,,,0.00,Wunderground v.1.15,2013-03-18 08:26:00,
2013-03-18 04:28:00,62.7,60.0,30.02,ESE,103,0.0,0.0,91,0.00,,,0.00,Wunderground v.1.15,2013-03-18 08:28:00,
2013-03-18 04:31:00,62.6,60.2,30.02,ESE,103,0.0,0.0,92,0.00,,,0.00,Wunderground v.1.15,2013-03-18 08:31:00,
2013-03-18 04:34:00,62.5,59.8,30.02,ESE,103,0.0,0.0,91,0.00,,,0.00,Wunderground v.1.15,2013-03-18 08:34:00,
2013-03-18 04:36:00,62.5,60.1,30.02,ESE,103,0.0,0.0,92,0.00,,,0.00,Wunderground v.1.15,2013-03-18 08:36:00,
2013-03-18 04:39:00,62.4,60.0,30.02,ESE,103,0.0,0.0,92,0.00,,,0.00,Wunderground v.1.15,2013-03-18 08:39:00,
2013-03-18 04:40:00,62.4,60.0,30.02,ESE,103,0.0,0.0,92,0.00,,,0.00,Wunderground v.1.15,2013-03-18 08:40:00,
2013-03-18 04:41:00,62.4,60.0,30.02,ESE,103,0.0,0.0,92,0.00,,,0.00,Wunderground v.1.15,2013-03-18 08:41:00,
2013-03-18 04:45:00,62.4,60.3,30.03,ESE,103,0.0,0.0,93,0.00,,,0.00,Wunderground v.1.15,2013-03-18 08:45:00,
2013-03-18 04:46:00,62.5,60.4,30.03,ESE,103,0.0,0.0,93,0.00,,,0.00,Wunderground v.1.15,2013-03-18 08:46:00,
2013-03-18 04:47:00,62.5,60.4,30.03,ESE,103,0.0,0.0,93,0.00,,,0.00,Wunderground v.1.15,2013-03-18 08:47:00,
2013-03-18 04:50:00,62.6,60.5,30.03,ESE,103,0.0,0.0,93,0.00,,,0.00,Wunderground v.1.15,2013-03-18 08:50:00,
2013-03-18 04:53:00,62.6,60.5,30.03,ESE,103,0.0,0.0,93,0.00,,,0.00,Wunderground v.1.15,2013-03-18 08:53:00,
2013-03-18 04:55:00,62.6,60.5,30.03,ESE,103,0.0,0.0,93,0.00,,,0.00,Wunderground v.1.15,2013-03-18 08:55:00,
2013-03-18 04:57:00,62.6,60.5,30.03,ESE,103,0.0,0.0,93,0.00,,,0.00,Wunderground v.1.15,2013-03-18 08:57:00,
2013-03-18 04:59:00,62.6,60.5,30.03,ESE,103,0.0,0.0,93,0.00,,,0.00,Wunderground v.1.15,2013-03-18 08:59:00,
2013-03-18 05:00:00,62.6,60.5,30.03,ESE,103,0.0,0.0,93,0.00,,,0.00,Wunderground v.1.15,2013-03-18 09:00:00,
2013-03-18 05:04:00,62.6,60.5,30.03,ESE,103,0.0,0.0,93,0.00,,,0.00,Wunderground v.1.15,2013-03-18 09:04:00,
2013-03-18 05:05:00,62.6,60.5,30.03,ESE,103,0.0,0.0,93,0.00,,,0.00,Wunderground v.1.15,2013-03-18 09:05:00,
2013-03-18 05:08:00,62.9,60.8,30.03,ESE,103,0.0,0.0,93,0.00,,,0.00,Wunderground v.1.15,2013-03-18 09:08:00,
2013-03-18 05:11:00,63.0,60.6,30.03,ESE,103,0.0,0.0,92,0.00,,,0.00,Wunderground v.1.15,2013-03-18 09:11:00,
2013-03-18 05:13:00,63.1,60.7,30.03,ESE,103,0.0,0.0,92,0.00,,,0.00,Wunderground v.1.15,2013-03-18 09:13:00,
2013-03-18 05:14:00,63.1,60.7,30.03,ESE,103,0.0,0.0,92,0.00,,,0.00,Wunderground v.1.15,2013-03-18 09:14:00,
2013-03-18 05:16:00,63.1,60.7,30.02,ESE,103,0.0,0.0,92,0.00,,,0.00,Wunderground v.1.15,2013-03-18 09:16:00,
2013-03-18 05:19:00,63.2,60.8,30.03,ESE,103,0.0,0.0,92,0.00,,,0.00,Wunderground v.1.15,2013-03-18 09:19:00,
2013-03-18 05:20:00,63.2,60.8,30.03,ESE,103,0.0,0.0,92,0.00,,,0.00,Wunderground v.1.15,2013-03-18 09:20:00,
2013-03-18 05:26:00,63.3,60.9,30.03,ESE,103,0.0,0.0,92,0.00,,,0.00,Wunderground v.1.15,2013-03-18 09:26:00,
2013-03-18 05:27:00,63.3,60.9,30.02,ESE,103,0.0,0.0,92,0.00,,,0.00,Wunderground v.1.15,2013-03-18 09:27:00,
2013-03-18 05:30:00,63.4,61.0,30.02,ESE,103,0.0,0.0,92,0.00,,,0.00,Wunderground v.1.15,2013-03-18 09:30:00,
2013-03-18 05:33:00,63.5,61.1,30.02,ESE,103,0.0,0.0,92,0.00,,,0.00,Wunderground v.1.15,2013-03-18 09:33:00,
2013-03-18 05:35:00,63.5,61.1,30.02,ESE,103,0.0,0.0,92,0.00,,,0.00,Wunderground v.1.15,2013-03-18 09:35:00,
2013-03-18 05:37:00,63.6,61.2,30.02,ESE,103,0.0,0.0,92,0.00,,,0.00,Wunderground v.1.15,2013-03-18 09:37:00,
2013-03-18 05:38:00,63.6,61.2,30.02,ESE,103,0.0,0.0,92,0.00,,,0.00,Wunderground v.1.15,2013-03-18 09:38:00,
2013-03-18 05:39:00,63.7,61.3,30.02,ESE,103,0.0,0.0,92,0.00,,,0.00,Wunderground v.1.15,2013-03-18 09:39:00,
2013-03-18 05:44:00,64.0,61.6,30.02,ESE,103,0.0,0.0,92,0.00,,,0.00,Wunderground v.1.15,2013-03-18 09:44:00,
2013-03-18 05:46:00,64.2,61.5,30.02,ESE,113,0.0,0.0,91,0.00,,,0.00,Wunderground v.1.15,2013-03-18 09:46:00,
2013-03-18 05:48:00,64.3,61.6,30.02,ESE,113,0.0,0.0,91,0.00,,,0.00,Wunderground v.1.15,2013-03-18 09:48:00,
2013-03-18 05:51:00,64.4,61.7,30.02,ESE,113,0.0,0.0,91,0.00,,,0.00,Wunderground v.1.15,2013-03-18 09:51:00,
2013-03-18 05:52:00,64.5,61.8,30.02,ESE,113,0.0,0.0,91,0.00,,,0.00,Wunderground v.1.15,2013-03-18 09:52:00,
2013-03-18 05:54:00,64.6,61.9,30.02,ESE,113,0.0,0.0,91,0.00,,,0.00,Wunderground v.1.15,2013-03-18 09:54:00,
2013-03-18 05:56:00,64.7,62.0,30.02,ESE,113,0.0,0.0,91,0.00,,,0.00,Wunderground v.1.15,2013-03-18 09:56:00,
2013-03-18 06:00:00,64.8,62.1,30.02,ESE,113,0.0,0.0,91,0.00,,,0.00,Wunderground v.1.15,2013-03-18 10:00:00,
2013-03-18 06:02:00,65.0,62.0,30.02,ESE,113,0.0,0.0,90,0.00,,,0.00,Wunderground v.1.15,2013-03-18 10:02:00,
2013-03-18 06:04:00,65.1,62.1,30.02,ESE,113,0.0,0.0,90,0.00,,,0.00,Wunderground v.1.15,2013-03-18 10:04:00,
2013-03-18 06:06:00,65.3,62.3,30.02,ESE,120,0.0,0.0,90,0.00,,,0.00,Wunderground v.1.15,2013-03-18 10:06:00,
2013-03-18 06:07:00,65.4,62.4,30.02,ESE,120,0.0,0.0,90,0.00,,,0.00,Wunderground v.1.15,2013-03-18 10:07:00,
2013-03-18 06:10:00,65.7,62.4,30.03,ESE,120,0.0,0.0,89,0.00,,,0.00,Wunderground v.1.15,2013-03-18 10:10:00,
2013-03-18 06:11:00,65.8,62.5,30.03,ESE,120,0.0,0.0,89,0.00,,,0.00,Wunderground v.1.15,2013-03-18 10:11:00,
2013-03-18 06:13:00,66.0,62.7,30.03,SE,130,0.0,0.0,89,0.00,,,0.00,Wunderground v.1.15,2013-03-18 10:13:00,
2013-03-18 06:15:00,66.1,62.4,30.03,SE,129,0.0,0.0,88,0.00,,,0.00,Wunderground v.1.15,2013-03-18 10:15:00,
2013-03-18 06:17:00,66.3,62.6,30.03,East,82,0.0,0.0,88,0.00,,,0.00,Wunderground v.1.15,2013-03-18 10:17:00,
2013-03-18 06:19:00,66.5,62.8,30.03,ESE,122,0.0,0.0,88,0.00,,,0.00,Wunderground v.1.15,2013-03-18 10:19:00,
2013-03-18 06:20:00,66.6,62.6,30.03,SE,127,0.0,0.0,87,0.00,,,0.00,Wunderground v.1.15,2013-03-18 10:20:00,
2013-03-18 06:25:00,67.1,62.8,30.03,ESE,115,0.0,2.0,86,0.00,,,0.00,Wunderground v.1.15,2013-03-18 10:25:00,
2013-03-18 06:29:00,67.2,62.9,30.04,ESE,115,0.0,2.0,86,0.00,,,0.00,Wunderground v.1.15,2013-03-18 10:29:00,
2013-03-18 06:30:00,67.1,62.8,30.03,ESE,115,0.0,0.0,86,0.00,,,0.00,Wunderground v.1.15,2013-03-18 10:30:00,
2013-03-18 06:32:00,67.1,62.8,30.04,SSE,153,0.0,0.0,86,0.00,,,0.00,Wunderground v.1.15,2013-03-18 10:32:00,
2013-03-18 06:34:00,67.2,62.9,30.03,SE,131,0.0,1.0,86,0.00,,,0.00,Wunderground v.1.15,2013-03-18 10:34:00,
2013-03-18 06:38:00,67.4,63.1,30.04,SE,124,0.0,1.0,86,0.00,,,0.00,Wunderground v.1.15,2013-03-18 10:38:00,
2013-03-18 06:41:00,67.4,62.7,30.04,SE,124,0.0,0.0,85,0.00,,,0.00,Wunderground v.1.15,2013-03-18 10:41:00,
2013-03-18 06:43:00,67.4,62.7,30.04,ESE,123,0.0,0.0,85,0.00,,,0.00,Wunderground v.1.15,2013-03-18 10:43:00,
2013-03-18 06:45:00,67.4,63.1,30.04,SE,126,0.0,0.0,86,0.00,,,0.00,Wunderground v.1.15,2013-03-18 10:45:00,
2013-03-18 06:46:00,67.5,63.2,30.04,SE,126,0.0,0.0,86,0.00,,,0.00,Wunderground v.1.15,2013-03-18 10:46:00,
2013-03-18 06:48:00,67.4,63.1,30.04,SE,126,0.0,0.0,86,0.00,,,0.00,Wunderground v.1.15,2013-03-18 10:48:00,
2013-03-18 06:52:00,67.4,63.1,30.04,SE,125,0.0,0.0,86,0.00,,,0.00,Wunderground v.1.15,2013-03-18 10:52:00,
2013-03-18 06:53:00,67.4,62.7,30.04,SE,125,0.0,0.0,85,0.00,,,0.00,Wunderground v.1.15,2013-03-18 10:53:00,
2013-03-18 06:54:00,67.4,62.7,30.04,SE,125,0.0,0.0,85,0.00,,,0.00,Wunderground v.1.15,2013-03-18 10:54:00,
2013-03-18 06:57:00,67.5,62.8,30.04,SE,125,0.0,0.0,85,0.00,,,0.00,Wunderground v.1.15,2013-03-18 10:57:00,
2013-03-18 07:00:00,67.5,62.8,30.04,ESE,117,0.0,0.0,85,0.00,,,0.00,Wunderground v.1.15,2013-03-18 11:00:00,
2013-03-18 07:01:00,67.5,62.8,30.04,ESE,117,0.0,0.0,85,0.00,,,0.00,Wunderground v.1.15,2013-03-18 11:01:00,
2013-03-18 07:02:00,67.5,62.8,30.04,ESE,117,0.0,0.0,85,0.00,,,0.00,Wunderground v.1.15,2013-03-18 11:02:00,
2013-03-18 07:07:00,67.7,63.0,30.04,SE,126,0.0,1.0,85,0.00,,,0.00,Wunderground v.1.15,2013-03-18 11:07:00,
2013-03-18 07:08:00,67.7,62.7,30.04,ESE,123,0.0,1.0,84,0.00,,,0.00,Wunderground v.1.15,2013-03-18 11:08:00,
2013-03-18 07:11:00,68.0,63.0,30.04,SE,128,1.0,1.0,84,0.00,,,0.00,Wunderground v.1.15,2013-03-18 11:11:00,
2013-03-18 07:12:00,68.0,63.0,30.04,ESE,119,1.0,1.0,84,0.00,,,0.00,Wunderground v.1.15,2013-03-18 11:12:00,
2013-03-18 07:13:00,68.1,63.1,30.04,SE,134,1.0,1.0,84,0.00,,,0.00,Wunderground v.1.15,2013-03-18 11:13:00,
2013-03-18 07:18:00,68.4,63.4,30.04,ESE,119,1.0,2.0,84,0.00,,,0.00,Wunderground v.1.15,2013-03-18 11:18:00,
2013-03-18 07:19:00,68.5,63.1,30.04,ESE,111,1.0,2.0,83,0.00,,,0.00,Wunderground v.1.15,2013-03-18 11:19:00,
2013-03-18 07:22:00,68.6,63.2,30.04,ESE,120,1.0,1.0,83,0.00,,,0.00,Wunderground v.1.15,2013-03-18 11:22:00,
2013-03-18 07:23:00,68.6,63.2,30.05,NE,41,1.0,2.0,83,0.00,,,0.00,Wunderground v.1.15,2013-03-18 11:23:00,
2013-03-18 07:27:00,68.8,63.4,30.04,ESE,108,1.0,2.0,83,0.00,,,0.00,Wunderground v.1.15,2013-03-18 11:27:00,
2013-03-18 07:28:00,68.9,63.5,30.04,ESE,105,1.0,2.0,83,0.00,,,0.00,Wunderground v.1.15,2013-03-18 11:28:00,
2013-03-18 07:32:00,69.3,63.6,30.04,SSE,158,2.0,2.0,82,0.00,,,0.00,Wunderground v.1.15,2013-03-18 11:32:00,
2013-03-18 07:34:00,69.4,63.7,30.04,SSE,152,2.0,2.0,82,0.00,,,0.00,Wunderground v.1.15,2013-03-18 11:34:00,
2013-03-18 07:36:00,69.5,63.8,30.04,SSE,165,2.0,2.0,82,0.00,,,0.00,Wunderground v.1.15,2013-03-18 11:36:00,
2013-03-18 07:38:00,69.6,63.9,30.05,SE,144,2.0,2.0,82,0.00,,,0.00,Wunderground v.1.15,2013-03-18 11:38:00,
2013-03-18 07:39:00,69.6,63.5,30.05,South,172,2.0,2.0,81,0.00,,,0.00,Wunderground v.1.15,2013-03-18 11:39:00,
2013-03-18 07:44:00,69.6,63.5,30.05,ESE,121,2.0,3.0,81,0.00,,,0.00,Wunderground v.1.15,2013-03-18 11:44:00,
2013-03-18 07:45:00,69.6,63.5,30.05,ENE,67,2.0,3.0,81,0.00,,,0.00,Wunderground v.1.15,2013-03-18 11:45:00,
2013-03-18 07:46:00,69.7,63.6,30.05,ESE,117,2.0,3.0,81,0.00,,,0.00,Wunderground v.1.15,2013-03-18 11:46:00,
2013-03-18 07:48:00,69.7,63.6,30.05,SE,124,2.0,3.0,81,0.00,,,0.00,Wunderground v.1.15,2013-03-18 11:48:00,
2013-03-18 07:51:00,69.8,63.7,30.05,SE,143,2.0,2.0,81,0.00,,,0.00,Wunderground v.1.15,2013-03-18 11:51:00,
2013-03-18 07:54:00,69.9,63.8,30.05,ESE,122,2.0,2.0,81,0.00,,,0.00,Wunderground v.1.15,2013-03-18 11:54:00,
2013-03-18 07:56:00,69.9,63.8,30.05,SSE,149,1.0,2.0,81,0.00,,,0.00,Wunderground v.1.15,2013-03-18 11:56:00,
2013-03-18 07:58:00,69.9,63.8,30.05,ENE,63,1.0,2.0,81,0.00,,,0.00,Wunderground v.1.15,2013-03-18 11:58:00,
2013-03-18 07:59:00,69.9,63.8,30.05,SSE,148,1.0,2.0,81,0.00,,,0.00,Wunderground v.1.15,2013-03-18 11:59:00,
2013-03-18 08:01:00,69.9,63.8,30.05,ESE,107,1.0,1.0,81,0.00,,,0.00,Wunderground v.1.15,2013-03-18 12:01:00,
2013-03-18 08:05:00,70.0,63.9,30.05,SE,135,1.0,1.0,81,0.00,,,0.00,Wunderground v.1.15,2013-03-18 12:05:00,
2013-03-18 08:06:00,70.0,63.9,30.05,SE,137,1.0,1.0,81,0.00,,,0.00,Wunderground v.1.15,2013-03-18 12:06:00,
2013-03-18 08:07:00,70.0,63.9,30.06,SE,135,1.0,1.0,81,0.00,,,0.00,Wunderground v.1.15,2013-03-18 12:07:00,
2013-03-18 08:08:00,70.1,64.0,30.06,SE,126,1.0,1.0,81,0.00,,,0.00,Wunderground v.1.15,2013-03-18 12:08:00,
2013-03-18 08:10:00,70.2,64.1,30.06,SSE,162,1.0,3.0,81,0.00,,,0.00,Wunderground v.1.15,2013-03-18 12:10:00,
2013-03-18 08:12:00,70.3,63.8,30.06,SE,129,1.0,3.0,80,0.00,,,0.00,Wunderground v.1.15,2013-03-18 12:12:00,
2013-03-18 08:13:00,70.5,64.0,30.06,SE,129,1.0,3.0,80,0.00,,,0.00,Wunderground v.1.15,2013-03-18 12:13:00,
2013-03-18 08:16:00,70.6,64.1,30.06,SE,137,1.0,3.0,80,0.00,,,0.00,Wunderground v.1.15,2013-03-18 12:16:00,
2013-03-18 08:17:00,70.7,64.2,30.06,SE,141,2.0,3.0,80,0.00,,,0.00,Wunderground v.1.15,2013-03-18 12:17:00,
2013-03-18 08:21:00,71.1,64.3,30.06,SE,140,2.0,2.0,79,0.00,,,0.00,Wunderground v.1.15,2013-03-18 12:21:00,
2013-03-18 08:22:00,71.3,64.1,30.06,ESE,108,2.0,3.0,78,0.00,,,0.00,Wunderground v.1.15,2013-03-18 12:22:00,
2013-03-18 08:25:00,71.6,64.4,30.06,ESE,123,2.0,5.0,78,0.00,,,0.00,Wunderground v.1.15,2013-03-18 12:25:00,
2013-03-18 08:27:00,71.6,64.0,30.06,SE,130,2.0,5.0,77,0.00,,,0.00,Wunderground v.1.15,2013-03-18 12:27:00,
2013-03-18 08:29:00,71.8,64.2,30.06,SE,136,3.0,5.0,77,0.00,,,0.00,Wunderground v.1.15,2013-03-18 12:29:00,
2013-03-18 08:32:00,71.9,64.3,30.05,ESE,115,3.0,3.0,77,0.00,,,0.00,Wunderground v.1.15,2013-03-18 12:32:00,
2013-03-18 08:37:00,72.1,64.1,30.06,SE,141,3.0,5.0,76,0.00,,,0.00,Wunderground v.1.15,2013-03-18 12:37:00,
2013-03-18 08:38:00,72.1,64.1,30.06,SE,139,3.0,5.0,76,0.00,,,0.00,Wunderground v.1.15,2013-03-18 12:38:00,
2013-03-18 08:39:00,72.2,64.2,30.06,SE,139,3.0,5.0,76,0.00,,,0.00,Wunderground v.1.15,2013-03-18 12:39:00,
2013-03-18 08:42:00,72.4,64.4,30.06,SE,129,3.0,3.0,76,0.00,,,0.00,Wunderground v.1.15,2013-03-18 12:42:00,
2013-03-18 08:43:00,72.5,64.1,30.06,SE,125,3.0,5.0,75,0.00,,,0.00,Wunderground v.1.15,2013-03-18 12:43:00,
2013-03-18 08:45:00,72.6,64.2,30.06,SE,129,3.0,5.0,75,0.00,,,0.00,Wunderground v.1.15,2013-03-18 12:45:00,
2013-03-18 08:46:00,72.7,64.3,30.06,SSE,157,3.0,5.0,75,0.00,,,0.00,Wunderground v.1.15,2013-03-18 12:46:00,
2013-03-18 08:50:00,72.8,64.4,30.06,SSE,156,3.0,3.0,75,0.00,,,0.00,Wunderground v.1.15,2013-03-18 12:50:00,
2013-03-18 08:52:00,72.9,64.1,30.06,East,90,3.0,4.0,74,0.00,,,0.00,Wunderground v.1.15,2013-03-18 12:52:00,
2013-03-18 08:56:00,73.1,64.3,30.06,SE,127,3.0,4.0,74,0.00,,,0.00,Wunderground v.1.15,2013-03-18 12:56:00,
2013-03-18 08:57:00,73.1,64.3,30.06,SE,145,3.0,4.0,74,0.00,,,0.00,Wunderground v.1.15,2013-03-18 12:57:00,
2013-03-18 08:58:00,73.2,64.4,30.05,South,186,4.0,4.0,74,0.00,,,0.00,Wunderground v.1.15,2013-03-18 12:58:00,
2013-03-18 09:03:00,73.3,64.5,30.05,SSE,155,4.0,4.0,74,0.00,,,0.00,Wunderground v.1.15,2013-03-18 13:03:00,
2013-03-18 09:04:00,73.3,64.5,30.05,SE,139,4.0,4.0,74,0.00,,,0.00,Wunderground v.1.15,2013-03-18 13:04:00,
2013-03-18 09:08:00,73.4,64.6,30.05,SSE,158,3.0,5.0,74,0.00,,,0.00,Wunderground v.1.15,2013-03-18 13:08:00,
2013-03-18 09:09:00,73.5,64.7,30.05,SSE,151,3.0,5.0,74,0.00,,,0.00,Wunderground v.1.15,2013-03-18 13:09:00,
2013-03-18 09:11:00,73.8,65.0,30.05,ESE,120,3.0,3.0,74,0.00,,,0.00,Wunderground v.1.15,2013-03-18 13:11:00,
2013-03-18 09:12:00,73.9,64.7,30.05,SE,145,3.0,8.0,73,0.00,,,0.00,Wunderground v.1.15,2013-03-18 13:12:00,
2013-03-18 09:14:00,74.1,64.9,30.05,ESE,115,4.0,8.0,73,0.00,,,0.00,Wunderground v.1.15,2013-03-18 13:14:00,
2013-03-18 09:17:00,74.2,64.6,30.06,SSE,164,4.0,8.0,72,0.00,,,0.00,Wunderground v.1.15,2013-03-18 13:17:00,
2013-03-18 09:18:00,74.2,64.6,30.06,SE,138,5.0,8.0,72,0.00,,,0.00,Wunderground v.1.15,2013-03-18 13:18:00,
2013-03-18 09:21:00,74.2,64.2,30.05,ESE,109,5.0,6.0,71,0.00,,,0.00,Wunderground v.1.15,2013-03-18 13:21:00,
2013-03-18 09:23:00,74.3,64.3,30.05,SE,145,5.0,7.0,71,0.00,,,0.00,Wunderground v.1.15,2013-03-18 13:23:00,
2013-03-18 09:24:00,74.3,64.3,30.06,ESE,121,5.0,7.0,71,0.00,,,0.00,Wunderground v.1.15,2013-03-18 13:24:00,
2013-03-18 09:26:00,74.4,64.4,30.06,SE,129,5.0,8.0,71,0.00,,,0.00,Wunderground v.1.15,2013-03-18 13:26:00,
2013-03-18 09:29:00,74.5,64.5,30.06,SE,141,5.0,8.0,71,0.00,,,0.00,Wunderground v.1.15,2013-03-18 13:29:00,
2013-03-18 09:31:00,74.6,64.6,30.06,ESE,115,5.0,6.0,71,0.00,,,0.00,Wunderground v.1.15,2013-03-18 13:31:00,
2013-03-18 09:33:00,74.8,64.4,30.06,ESE,117,5.0,6.0,70,0.00,,,0.00,Wunderground v.1.15,2013-03-18 13:33:00,
2013-03-18 09:35:00,75.0,64.5,30.06,ENE,60,5.0,6.0,70,0.00,,,0.00,Wunderground v.1.15,2013-03-18 13:35:00,
2013-03-18 09:38:00,75.1,64.6,30.05,SSE,161,5.0,6.0,70,0.00,,,0.00,Wunderground v.1.15,2013-03-18 13:38:00,
2013-03-18 09:40:00,74.9,64.5,30.05,SE,146,5.0,5.0,70,0.00,,,0.00,Wunderground v.1.15,2013-03-18 13:40:00,
2013-03-18 09:44:00,74.7,64.3,30.06,SSE,165,6.0,8.0,70,0.00,,,0.00,Wunderground v.1.15,2013-03-18 13:44:00,
2013-03-18 09:49:00,74.5,64.5,30.06,ESE,110,6.0,13.0,71,0.00,,,0.00,Wunderground v.1.15,2013-03-18 13:49:00,
2013-03-18 09:50:00,74.4,64.4,30.07,SE,129,6.0,7.0,71,0.00,,,0.00,Wunderground v.1.15,2013-03-18 13:50:00,
2013-03-18 09:51:00,74.4,64.4,30.07,East,83,6.0,7.0,71,0.00,,,0.00,Wunderground v.1.15,2013-03-18 13:51:00,
2013-03-18 09:52:00,74.4,64.4,30.06,SSE,154,6.0,7.0,71,0.00,,,0.00,Wunderground v.1.15,2013-03-18 13:52:00,
2013-03-18 09:55:00,74.5,64.1,30.06,SSE,167,6.0,10.0,70,0.00,,,0.00,Wunderground v.1.15,2013-03-18 13:55:00,
2013-03-18 09:57:00,74.7,64.3,30.06,ESE,102,6.0,10.0,70,0.00,,,0.00,Wunderground v.1.15,2013-03-18 13:57:00,
2013-03-18 09:59:00,74.9,64.5,30.07,South,177,6.0,10.0,70,0.00,,,0.00,Wunderground v.1.15,2013-03-18 13:59:00,
2013-03-18 10:01:00,75.1,64.6,30.07,SE,127,6.0,6.0,70,0.00,,,0.00,Wunderground v.1.15,2013-03-18 14:01:00,
2013-03-18 10:03:00,75.1,64.6,30.06,ESE,118,6.0,6.0,70,0.00,,,0.00,Wunderground v.1.15,2013-03-18 14:03:00,
2013-03-18 10:07:00,75.1,64.2,30.06,SSE,160,5.0,10.0,69,0.00,,,0.00,Wunderground v.1.15,2013-03-18 14:07:00,
2013-03-18 10:08:00,75.1,64.2,30.07,SE,134,6.0,10.0,69,0.00,,,0.00,Wunderground v.1.15,2013-03-18 14:08:00,
2013-03-18 10:10:00,74.9,64.0,30.06,SE,129,6.0,6.0,69,0.00,,,0.00,Wunderground v.1.15,2013-03-18 14:10:00,
2013-03-18 10:12:00,74.9,64.5,30.06,SSW,206,6.0,6.0,70,0.00,,,0.00,Wunderground v.1.15,2013-03-18 14:12:00,
2013-03-18 10:13:00,74.8,64.4,30.06,SSE,155,5.0,10.0,70,0.00,,,0.00,Wunderground v.1.15,2013-03-18 14:13:00,
2013-03-18 10:16:00,74.8,64.4,30.07,SE,127,6.0,10.0,70,0.00,,,0.00,Wunderground v.1.15,2013-03-18 14:16:00,
2013-03-18 10:19:00,74.7,64.3,30.06,East,94,5.0,10.0,70,0.00,,,0.00,Wunderground v.1.15,2013-03-18 14:19:00,
2013-03-18 10:20:00,74.6,64.2,30.06,ESE,104,5.0,5.0,70,0.00,,,0.00,Wunderground v.1.15,2013-03-18 14:20:00,
2013-03-18 10:21:00,74.6,64.2,30.06,SE,129,5.0,5.0,70,0.00,,,0.00,Wunderground v.1.15,2013-03-18 14:21:00,
2013-03-18 10:26:00,74.7,64.7,30.06,SSE,162,5.0,7.0,71,0.00,,,0.00,Wunderground v.1.15,2013-03-18 14:26:00,
2013-03-18 10:27:00,74.8,64.8,30.06,East,91,5.0,7.0,71,0.00,,,0.00,Wunderground v.1.15,2013-03-18 14:27:00,
2013-03-18 10:28:00,75.0,65.0,30.06,SSE,153,5.0,7.0,71,0.00,,,0.00,Wunderground v.1.15,2013-03-18 14:28:00,
2013-03-18 10:30:00,75.3,64.4,30.06,SE,142,5.0,7.0,69,0.00,,,0.00,Wunderground v.1.15,2013-03-18 14:30:00,
2013-03-18 10:34:00,75.7,64.8,30.06,SE,127,5.0,7.0,69,0.00,,,0.00,Wunderground v.1.15,2013-03-18 14:34:00,
2013-03-18 10:36:00,75.9,65.0,30.06,SW,217,5.0,7.0,69,0.00,,,0.00,Wunderground v.1.15,2013-03-18 14:36:00,
2013-03-18 10:39:00,76.2,64.9,30.06,SE,133,5.0,7.0,68,0.00,,,0.00,Wunderground v.1.15,2013-03-18 14:39:00,
2013-03-18 10:40:00,76.2,64.9,30.06,SSW,210,5.0,5.0,68,0.00,,,0.00,Wunderground v.1.15,2013-03-18 14:40:00,
2013-03-18 10:42:00,76.4,65.1,30.06,SSW,203,5.0,6.0,68,0.00,,,0.00,Wunderground v.1.15,2013-03-18 14:42:00,
2013-03-18 10:43:00,76.5,65.1,30.06,SE,141,5.0,7.0,68,0.00,,,0.00,Wunderground v.1.15,2013-03-18 14:43:00,
2013-03-18 10:45:00,76.7,64.9,30.06,ESE,113,5.0,7.0,67,0.00,,,0.00,Wunderground v.1.15,2013-03-18 14:45:00,
2013-03-18 10:46:00,76.8,65.0,30.06,ESE,109,5.0,7.0,67,0.00,,,0.00,Wunderground v.1.15,2013-03-18 14:46:00,
2013-03-18 10:47:00,77.0,65.2,30.06,SSE,160,5.0,7.0,67,0.00,,,0.00,Wunderground v.1.15,2013-03-18 14:47:00,
2013-03-18 10:48:00,77.2,65.4,30.06,SE,139,5.0,7.0,67,0.00,,,0.00,Wunderground v.1.15,2013-03-18 14:48:00,
2013-03-18 10:52:00,77.7,65.0,30.06,ESE,122,5.0,8.0,65,0.00,,,0.00,Wunderground v.1.15,2013-03-18 14:52:00,
2013-03-18 10:54:00,77.6,64.9,30.06,SE,134,6.0,8.0,65,0.00,,,0.00,Wunderground v.1.15,2013-03-18 14:54:00,
2013-03-18 10:55:00,77.5,65.2,30.06,SSE,149,6.0,8.0,66,0.00,,,0.00,Wunderground v.1.15,2013-03-18 14:55:00,
2013-03-18 10:58:00,77.4,65.1,30.06,SE,134,6.0,9.0,66,0.00,,,0.00,Wunderground v.1.15,2013-03-18 14:58:00,
2013-03-18 11:00:00,77.4,65.1,30.06,SSE,151,6.0,6.0,66,0.00,,,0.00,Wunderground v.1.15,2013-03-18 15:00:00,
2013-03-18 11:02:00,77.6,64.5,30.06,SE,128,6.0,8.0,64,0.00,,,0.00,Wunderground v.1.15,2013-03-18 15:02:00,
2013-03-18 11:03:00,77.6,64.9,30.06,SSE,157,6.0,8.0,65,0.00,,,0.00,Wunderground v.1.15,2013-03-18 15:03:00,
2013-03-18 11:08:00,77.5,64.8,30.06,ENE,70,6.0,8.0,65,0.00,,,0.00,Wunderground v.1.15,2013-03-18 15:08:00,
2013-03-18 11:11:00,77.4,65.1,30.06,SSE,168,6.0,6.0,66,0.00,,,0.00,Wunderground v.1.15,2013-03-18 15:11:00,
2013-03-18 11:13:00,77.5,64.8,30.06,SSE,164,5.0,6.0,65,0.00,,,0.00,Wunderground v.1.15,2013-03-18 15:13:00,
2013-03-18 11:14:00,77.5,64.8,30.06,South,180,5.0,7.0,65,0.00,,,0.00,Wunderground v.1.15,2013-03-18 15:14:00,
2013-03-18 11:15:00,77.5,64.8,30.06,ESE,106,5.0,7.0,65,0.00,,,0.00,Wunderground v.1.15,2013-03-18 15:15:00,
2013-03-18 11:19:00,77.1,64.9,30.06,ESE,113,5.0,9.0,66,0.00,,,0.00,Wunderground v.1.15,2013-03-18 15:19:00,
2013-03-18 11:20:00,77.2,65.0,30.06,SSE,158,5.0,6.0,66,0.00,,,0.00,Wunderground v.1.15,2013-03-18 15:20:00,
2013-03-18 11:23:00,77.3,65.1,30.06,SE,129,6.0,8.0,66,0.00,,,0.00,Wunderground v.1.15,2013-03-18 15:23:00,
2013-03-18 11:25:00,77.3,65.1,30.06,SE,127,6.0,8.0,66,0.00,,,0.00,Wunderground v.1.15,2013-03-18 15:25:00,
2013-03-18 11:30:00,77.5,65.2,30.06,ESE,104,5.0,9.0,66,0.00,,,0.00,Wunderground v.1.15,2013-03-18 15:30:00,
2013-03-18 11:31:00,77.5,65.2,30.06,SE,137,6.0,9.0,66,0.00,,,0.00,Wunderground v.1.15,2013-03-18 15:31:00,
2013-03-18 11:32:00,77.5,65.2,30.06,SE,124,6.0,9.0,66,0.00,,,0.00,Wunderground v.1.15,2013-03-18 15:32:00,
2013-03-18 11:33:00,77.5,65.2,30.05,ESE,103,6.0,9.0,66,0.00,,,0.00,Wunderground v.1.15,2013-03-18 15:33:00,
2013-03-18 11:36:00,77.7,65.9,30.05,SSE,158,5.0,9.0,67,0.00,,,0.00,Wunderground v.1.15,2013-03-18 15:36:00,
2013-03-18 11:39:00,77.9,65.6,30.05,SSE,155,5.0,9.0,66,0.00,,,0.00,Wunderground v.1.15,2013-03-18 15:39:00,
2013-03-18 11:41:00,77.8,65.1,30.05,ESE,119,5.0,6.0,65,0.00,,,0.00,Wunderground v.1.15,2013-03-18 15:41:00,
2013-03-18 11:42:00,77.9,65.2,30.05,SSW,203,5.0,6.0,65,0.00,,,0.00,Wunderground v.1.15,2013-03-18 15:42:00,
2013-03-18 11:43:00,77.9,65.2,30.05,SSE,168,5.0,6.0,65,0.00,,,0.00,Wunderground v.1.15,2013-03-18 15:43:00,
2013-03-18 11:44:00,77.9,65.2,30.05,SSE,155,5.0,9.0,65,0.00,,,0.00,Wunderground v.1.15,2013-03-18 15:44:00,
2013-03-18 11:47:00,78.1,65.4,30.05,ENE,75,6.0,9.0,65,0.00,,,0.00,Wunderground v.1.15,2013-03-18 15:47:00,
2013-03-18 11:48:00,78.3,65.6,30.04,SE,139,6.0,11.0,65,0.00,,,0.00,Wunderground v.1.15,2013-03-18 15:48:00,
2013-03-18 11:49:00,78.4,65.7,30.04,ESE,108,6.0,11.0,65,0.00,,,0.00,Wunderground v.1.15,2013-03-18 15:49:00,
2013-03-18 11:53:00,78.2,65.0,30.05,East,90,7.0,12.0,64,0.00,,,0.00,Wunderground v.1.15,2013-03-18 15:53:00,
2013-03-18 11:55:00,78.2,65.0,30.04,SSE,158,7.0,12.0,64,0.00,,,0.00,Wunderground v.1.15,2013-03-18 15:55:00,
2013-03-18 11:57:00,78.1,64.9,30.04,SSE,147,7.0,12.0,64,0.00,,,0.00,Wunderground v.1.15,2013-03-18 15:57:00,
2013-03-18 11:58:00,78.0,65.3,30.04,ESE,122,7.0,12.0,65,0.00,,,0.00,Wunderground v.1.15,2013-03-18 15:58:00,
2013-03-18 12:01:00,77.9,64.7,30.04,SSE,166,7.0,7.0,64,0.00,,,0.00,Wunderground v.1.15,2013-03-18 16:01:00,
2013-03-18 12:03:00,78.0,64.8,30.04,ESE,115,7.0,9.0,64,0.00,,,0.00,Wunderground v.1.15,2013-03-18 16:03:00,
2013-03-18 12:04:00,78.1,64.9,30.04,SSE,148,7.0,9.0,64,0.00,,,0.00,Wunderground v.1.15,2013-03-18 16:04:00,
2013-03-18 12:07:00,78.4,65.7,30.04,SE,134,6.0,9.0,65,0.00,,,0.00,Wunderground v.1.15,2013-03-18 16:07:00,
2013-03-18 12:08:00,78.6,65.8,30.04,SSE,150,6.0,9.0,65,0.00,,,0.00,Wunderground v.1.15,2013-03-18 16:08:00,
2013-03-18 12:09:00,78.7,65.5,30.04,SE,139,6.0,9.0,64,0.00,,,0.00,Wunderground v.1.15,2013-03-18 16:09:00,
2013-03-18 12:15:00,78.8,65.6,30.04,SSE,148,6.0,7.0,64,0.00,,,0.00,Wunderground v.1.15,2013-03-18 16:15:00,
2013-03-18 12:16:00,78.9,65.7,30.04,ESE,104,6.0,8.0,64,0.00,,,0.00,Wunderground v.1.15,2013-03-18 16:16:00,
2013-03-18 12:17:00,79.1,65.4,30.04,SSE,153,6.0,8.0,63,0.00,,,0.00,Wunderground v.1.15,2013-03-18 16:17:00,
2013-03-18 12:21:00,79.6,65.4,30.04,SSE,168,6.0,7.0,62,0.00,,,0.00,Wunderground v.1.15,2013-03-18 16:21:00,
2013-03-18 12:22:00,79.8,66.1,30.04,SSE,167,6.0,7.0,63,0.00,,,0.00,Wunderground v.1.15,2013-03-18 16:22:00,
2013-03-18 12:23:00,79.8,65.6,30.04,SSE,167,6.0,7.0,62,0.00,,,0.00,Wunderground v.1.15,2013-03-18 16:23:00,
2013-03-18 12:25:00,79.7,65.5,30.04,SE,133,6.0,8.0,62,0.00,,,0.00,Wunderground v.1.15,2013-03-18 16:25:00,
2013-03-18 12:28:00,79.6,65.4,30.04,South,184,7.0,8.0,62,0.00,,,0.00,Wunderground v.1.15,2013-03-18 16:28:00,
2013-03-18 12:29:00,79.7,65.5,30.04,SE,144,7.0,8.0,62,0.00,,,0.00,Wunderground v.1.15,2013-03-18 16:29:00,
2013-03-18 12:32:00,80.0,66.3,30.04,SSE,152,7.0,8.0,63,0.00,,,0.00,Wunderground v.1.15,2013-03-18 16:32:00,
2013-03-18 12:36:00,80.1,66.4,30.03,SE,133,6.0,8.0,63,0.00,,,0.00,Wunderground v.1.15,2013-03-18 16:36:00,
2013-03-18 12:37:00,80.1,66.4,30.03,SE,124,6.0,8.0,63,0.00,,,0.00,Wunderground v.1.15,2013-03-18 16:37:00,
2013-03-18 12:38:00,80.2,66.0,30.03,SSE,162,6.0,8.0,62,0.00,,,0.00,Wunderground v.1.15,2013-03-18 16:38:00,
2013-03-18 12:41:00,80.4,65.7,30.03,SE,125,6.0,6.0,61,0.00,,,0.00,Wunderground v.1.15,2013-03-18 16:41:00,
2013-03-18 12:42:00,80.4,65.7,30.03,SE,129,6.0,6.0,61,0.00,,,0.00,Wunderground v.1.15,2013-03-18 16:42:00,
2013-03-18 12:47:00,80.4,65.7,30.03,SE,141,6.0,11.0,61,0.00,,,0.00,Wunderground v.1.15,2013-03-18 16:47:00,
2013-03-18 12:49:00,80.2,65.5,30.03,South,181,6.0,11.0,61,0.00,,,0.00,Wunderground v.1.15,2013-03-18 16:49:00,
2013-03-18 12:54:00,79.4,65.2,30.03,ESE,111,7.0,10.0,62,0.00,,,0.00,Wunderground v.1.15,2013-03-18 16:54:00,
2013-03-18 12:55:00,79.2,65.1,30.03,SSW,204,7.0,10.0,62,0.00,,,0.00,Wunderground v.1.15,2013-03-18 16:55:00,
2013-03-18 12:56:00,79.2,65.5,30.03,SE,131,7.0,10.0,63,0.00,,,0.00,Wunderground v.1.15,2013-03-18 16:56:00,
2013-03-18 12:57:00,79.3,65.6,30.03,SSE,147,7.0,10.0,63,0.00,,,0.00,Wunderground v.1.15,2013-03-18 16:57:00,
2013-03-18 13:01:00,79.8,66.1,30.03,SE,136,6.0,6.0,63,0.00,,,0.00,Wunderground v.1.15,2013-03-18 17:01:00,
2013-03-18 13:02:00,79.8,66.1,30.03,SE,142,6.0,6.0,63,0.00,,,0.00,Wunderground v.1.15,2013-03-18 17:02:00,
2013-03-18 13:04:00,79.7,66.0,30.03,SSE,158,6.0,9.0,63,0.00,,,0.00,Wunderground v.1.15,2013-03-18 17:04:00,
2013-03-18 13:05:00,79.6,65.9,30.03,SE,146,6.0,9.0,63,0.00,,,0.00,Wunderground v.1.15,2013-03-18 17:05:00,
2013-03-18 13:07:00,79.2,66.0,30.03,South,170,6.0,9.0,64,0.00,,,0.00,Wunderground v.1.15,2013-03-18 17:07:00,
2013-03-18 13:09:00,79.3,65.6,30.03,South,186,5.0,9.0,63,0.00,,,0.00,Wunderground v.1.15,2013-03-18 17:09:00,
2013-03-18 13:10:00,79.4,65.7,30.03,SE,137,5.0,6.0,63,0.00,,,0.00,Wunderground v.1.15,2013-03-18 17:10:00,
2013-03-18 13:13:00,79.4,65.7,30.03,SSE,148,6.0,12.0,63,0.00,,,0.00,Wunderground v.1.15,2013-03-18 17:13:00,
2013-03-18 13:14:00,79.3,65.6,30.03,SSE,158,6.0,12.0,63,0.00,,,0.00,Wunderground v.1.15,2013-03-18 17:14:00,
2013-03-18 13:16:00,79.2,66.0,30.02,SSE,162,6.0,12.0,64,0.00,,,0.00,Wunderground v.1.15,2013-03-18 17:16:00,
2013-03-18 13:17:00,79.3,65.6,30.03,ENE,66,6.0,12.0,63,0.00,,,0.00,Wunderground v.1.15,2013-03-18 17:17:00,
2013-03-18 13:21:00,79.2,66.0,30.03,SE,129,5.0,6.0,64,0.00,,,0.00,Wunderground v.1.15,2013-03-18 17:21:00,
2013-03-18 13:22:00,79.1,65.9,30.02,SE,124,6.0,6.0,64,0.00,,,0.00,Wunderground v.1.15,2013-03-18 17:22:00,
2013-03-18 13:23:00,79.1,65.9,30.02,ESE,107,5.0,6.0,64,0.00,,,0.00,Wunderground v.1.15,2013-03-18 17:23:00,
2013-03-18 13:28:00,78.8,66.0,30.02,SE,135,6.0,11.0,65,0.00,,,0.00,Wunderground v.1.15,2013-03-18 17:28:00,
2013-03-18 13:29:00,78.8,66.0,30.02,South,182,6.0,11.0,65,0.00,,,0.00,Wunderground v.1.15,2013-03-18 17:29:00,
2013-03-18 13:32:00,79.1,66.3,30.01,SSE,159,7.0,9.0,65,0.00,,,0.00,Wunderground v.1.15,2013-03-18 17:32:00,
2013-03-18 13:33:00,79.2,66.4,30.01,South,181,7.0,9.0,65,0.00,,,0.00,Wunderground v.1.15,2013-03-18 17:33:00,
2013-03-18 13:34:00,79.4,66.6,30.01,SE,136,6.0,9.0,65,0.00,,,0.00,Wunderground v.1.15,2013-03-18 17:34:00,
2013-03-18 13:37:00,79.6,66.8,30.01,ESE,115,6.0,9.0,65,0.00,,,0.00,Wunderground v.1.15,2013-03-18 17:37:00,
2013-03-18 13:38:00,79.5,65.8,30.01,SSE,162,6.0,9.0,63,0.00,,,0.00,Wunderground v.1.15,2013-03-18 17:38:00,
2013-03-18 13:40:00,79.4,66.2,30.01,SE,128,6.0,6.0,64,0.00,,,0.00,Wunderground v.1.15,2013-03-18 17:40:00,
2013-03-18 13:42:00,79.4,66.6,30.01,ESE,119,5.0,6.0,65,0.00,,,0.00,Wunderground v.1.15,2013-03-18 17:42:00,
2013-03-18 13:44:00,79.6,66.3,30.01,ESE,122,5.0,7.0,64,0.00,,,0.00,Wunderground v.1.15,2013-03-18 17:44:00,
2013-03-18 13:47:00,79.8,66.5,30.00,SE,136,5.0,7.0,64,0.00,,,0.00,Wunderground v.1.15,2013-03-18 17:47:00,
2013-03-18 13:48:00,79.8,66.5,30.00,ESE,113,5.0,7.0,64,0.00,,,0.00,Wunderground v.1.15,2013-03-18 17:48:00,
2013-03-18 13:52:00,79.6,66.3,30.00,SSE,156,6.0,15.0,64,0.00,,,0.00,Wunderground v.1.15,2013-03-18 17:52:00,
2013-03-18 13:53:00,79.5,66.3,30.00,South,184,7.0,15.0,64,0.00,,,0.00,Wunderground v.1.15,2013-03-18 17:53:00,
2013-03-18 13:54:00,79.5,66.7,30.00,SW,214,7.0,15.0,65,0.00,,,0.00,Wunderground v.1.15,2013-03-18 17:54:00,
2013-03-18 13:56:00,79.7,66.9,30.00,ESE,103,7.0,15.0,65,0.00,,,0.00,Wunderground v.1.15,2013-03-18 17:56:00,
2013-03-18 14:02:00,79.5,66.7,30.00,East,96,6.0,13.0,65,0.00,,,0.00,Wunderground v.1.15,2013-03-18 18:02:00,
2013-03-18 14:03:00,79.6,66.8,30.00,SE,133,6.0,13.0,65,0.00,,,0.00,Wunderground v.1.15,2013-03-18 18:03:00,
2013-03-18 14:05:00,79.7,66.9,30.00,SE,139,6.0,13.0,65,0.00,,,0.00,Wunderground v.1.15,2013-03-18 18:05:00,
2013-03-18 14:07:00,79.7,66.4,30.00,SSE,151,7.0,13.0,64,0.00,,,0.00,Wunderground v.1.15,2013-03-18 18:07:00,
2013-03-18 14:08:00,79.7,66.9,30.00,ESE,120,7.0,13.0,65,0.00,,,0.00,Wunderground v.1.15,2013-03-18 18:08:00,
2013-03-18 14:10:00,79.9,67.1,29.99,SSE,165,6.0,7.0,65,0.00,,,0.00,Wunderground v.1.15,2013-03-18 18:10:00,
2013-03-18 14:12:00,80.1,66.8,29.99,SE,139,6.0,7.0,64,0.00,,,0.00,Wunderground v.1.15,2013-03-18 18:12:00,
2013-03-18 14:14:00,80.1,66.8,29.99,ESE,104,6.0,8.0,64,0.00,,,0.00,Wunderground v.1.15,2013-03-18 18:14:00,
2013-03-18 14:17:00,80.1,66.8,29.99,South,173,6.0,9.0,64,0.00,,,0.00,Wunderground v.1.15,2013-03-18 18:17:00,
2013-03-18 14:19:00,80.1,66.8,29.99,SSE,147,6.0,11.0,64,0.00,,,0.00,Wunderground v.1.15,2013-03-18 18:19:00,
2013-03-18 14:21:00,80.1,66.8,29.99,South,171,6.0,7.0,64,0.00,,,0.00,Wunderground v.1.15,2013-03-18 18:21:00,
2013-03-18 14:24:00,80.3,67.0,29.99,SSE,157,7.0,11.0,64,0.00,,,0.00,Wunderground v.1.15,2013-03-18 18:24:00,
2013-03-18 14:27:00,80.2,66.9,29.99,East,99,7.0,11.0,64,0.00,,,0.00,Wunderground v.1.15,2013-03-18 18:27:00,
2013-03-18 14:28:00,80.2,66.9,29.99,ESE,111,7.0,11.0,64,0.00,,,0.00,Wunderground v.1.15,2013-03-18 18:28:00,
2013-03-18 14:29:00,80.3,67.0,29.99,SSE,154,6.0,11.0,64,0.00,,,0.00,Wunderground v.1.15,2013-03-18 18:29:00,
2013-03-18 14:33:00,80.1,66.8,29.99,SE,146,7.0,7.0,64,0.00,,,0.00,Wunderground v.1.15,2013-03-18 18:33:00,
2013-03-18 14:34:00,80.1,66.8,29.99,SSE,155,6.0,7.0,64,0.00,,,0.00,Wunderground v.1.15,2013-03-18 18:34:00,
2013-03-18 14:36:00,80.1,66.8,29.99,SE,134,6.0,10.0,64,0.00,,,0.00,Wunderground v.1.15,2013-03-18 18:36:00,
2013-03-18 14:37:00,80.1,66.8,29.98,SSE,152,6.0,10.0,64,0.00,,,0.00,Wunderground v.1.15,2013-03-18 18:37:00,
2013-03-18 14:40:00,79.9,66.6,29.98,SE,137,6.0,7.0,64,0.00,,,0.00,Wunderground v.1.15,2013-03-18 18:40:00,
2013-03-18 14:42:00,79.9,67.1,29.98,ESE,119,6.0,9.0,65,0.00,,,0.00,Wunderground v.1.15,2013-03-18 18:42:00,
2013-03-18 14:44:00,79.9,67.1,29.98,ESE,121,7.0,9.0,65,0.00,,,0.00,Wunderground v.1.15,2013-03-18 18:44:00,
2013-03-18 14:47:00,80.1,66.8,29.98,SE,127,6.0,9.0,64,0.00,,,0.00,Wunderground v.1.15,2013-03-18 18:47:00,
2013-03-18 14:51:00,80.3,67.5,29.98,SE,127,6.0,10.0,65,0.00,,,0.00,Wunderground v.1.15,2013-03-18 18:51:00,
2013-03-18 14:54:00,80.2,66.9,29.97,SE,135,6.0,13.0,64,0.00,,,0.00,Wunderground v.1.15,2013-03-18 18:54:00,
2013-03-18 14:55:00,80.2,66.9,29.97,SE,136,6.0,13.0,64,0.00,,,0.00,Wunderground v.1.15,2013-03-18 18:55:00,
2013-03-18 14:57:00,80.2,66.9,29.97,ENE,63,6.0,13.0,64,0.00,,,0.00,Wunderground v.1.15,2013-03-18 18:57:00,
2013-03-18 14:59:00,80.1,67.3,29.97,ESE,113,6.0,13.0,65,0.00,,,0.00,Wunderground v.1.15,2013-03-18 18:59:00,
2013-03-18 15:02:00,79.9,67.1,29.96,SE,141,6.0,7.0,65,0.00,,,0.00,Wunderground v.1.15,2013-03-18 19:02:00,
2013-03-18 15:04:00,80.0,67.2,29.96,SE,136,6.0,7.0,65,0.00,,,0.00,Wunderground v.1.15,2013-03-18 19:04:00,
2013-03-18 15:05:00,80.0,67.2,29.97,SSE,160,5.0,7.0,65,0.00,,,0.00,Wunderground v.1.15,2013-03-18 19:05:00,
2013-03-18 15:07:00,80.2,67.4,29.97,SE,134,5.0,9.0,65,0.00,,,0.00,Wunderground v.1.15,2013-03-18 19:07:00,
2013-03-18 15:09:00,80.0,67.2,29.97,SSE,168,5.0,9.0,65,0.00,,,0.00,Wunderground v.1.15,2013-03-18 19:09:00,
2013-03-18 15:10:00,80.0,67.2,29.97,South,173,5.0,5.0,65,0.00,,,0.00,Wunderground v.1.15,2013-03-18 19:10:00,
2013-03-18 15:12:00,79.8,67.0,29.97,East,101,5.0,6.0,65,0.00,,,0.00,Wunderground v.1.15,2013-03-18 19:12:00,
2013-03-18 15:14:00,79.7,66.9,29.97,ESE,122,5.0,7.0,65,0.00,,,0.00,Wunderground v.1.15,2013-03-18 19:14:00,
2013-03-18 15:16:00,79.6,66.8,29.97,SSE,149,6.0,8.0,65,0.00,,,0.00,Wunderground v.1.15,2013-03-18 19:16:00,
2013-03-18 15:20:00,79.4,67.0,29.97,SSE,165,5.0,5.0,66,0.00,,,0.00,Wunderground v.1.15,2013-03-18 19:20:00,
2013-03-18 15:21:00,79.4,67.0,29.97,ESE,103,5.0,5.0,66,0.00,,,0.00,Wunderground v.1.15,2013-03-18 19:21:00,
2013-03-18 15:22:00,79.3,67.0,29.97,SE,146,5.0,8.0,66,0.00,,,0.00,Wunderground v.1.15,2013-03-18 19:22:00,
2013-03-18 15:25:00,79.2,67.3,29.97,SSE,150,5.0,8.0,67,0.00,,,0.00,Wunderground v.1.15,2013-03-18 19:25:00,
2013-03-18 15:26:00,79.3,67.4,29.97,SSE,155,5.0,8.0,67,0.00,,,0.00,Wunderground v.1.15,2013-03-18 19:26:00,
2013-03-18 15:28:00,79.3,67.0,29.97,ESE,119,5.0,8.0,66,0.00,,,0.00,Wunderground v.1.15,2013-03-18 19:28:00,
2013-03-18 15:30:00,79.5,67.1,29.97,SSW,200,5.0,5.0,66,0.00,,,0.00,Wunderground v.1.15,2013-03-18 19:30:00,
2013-03-18 15:31:00,79.6,67.2,29.97,SE,137,5.0,5.0,66,0.00,,,0.00,Wunderground v.1.15,2013-03-18 19:31:00,
2013-03-18 15:32:00,79.6,67.2,29.97,SSE,153,5.0,5.0,66,0.00,,,0.00,Wunderground v.1.15,2013-03-18 19:32:00,
2013-03-18 15:36:00,79.7,67.3,29.97,SE,136,4.0,7.0,66,0.00,,,0.00,Wunderground v.1.15,2013-03-18 19:36:00,
2013-03-18 15:38:00,79.6,67.2,29.97,SE,127,4.0,7.0,66,0.00,,,0.00,Wunderground v.1.15,2013-03-18 19:38:00,
2013-03-18 15:39:00,79.5,67.1,29.97,SE,129,4.0,7.0,66,0.00,,,0.00,Wunderground v.1.15,2013-03-18 19:39:00,
2013-03-18 15:41:00,79.4,67.0,29.97,ESE,106,4.0,5.0,66,0.00,,,0.00,Wunderground v.1.15,2013-03-18 19:41:00,
2013-03-18 15:44:00,79.5,67.6,29.96,SSE,158,4.0,5.0,67,0.00,,,0.00,Wunderground v.1.15,2013-03-18 19:44:00,
2013-03-18 15:45:00,79.6,67.7,29.96,SW,214,4.0,7.0,67,0.00,,,0.00,Wunderground v.1.15,2013-03-18 19:45:00,
2013-03-18 15:48:00,79.7,67.8,29.96,South,184,4.0,7.0,67,0.00,,,0.00,Wunderground v.1.15,2013-03-18 19:48:00,
2013-03-18 15:52:00,79.7,67.3,29.96,SE,133,4.0,6.0,66,0.00,,,0.00,Wunderground v.1.15,2013-03-18 19:52:00,
2013-03-18 15:53:00,79.6,67.2,29.96,SE,124,4.0,6.0,66,0.00,,,0.00,Wunderground v.1.15,2013-03-18 19:53:00,
2013-03-18 15:54:00,79.6,67.2,29.96,SE,143,4.0,6.0,66,0.00,,,0.00,Wunderground v.1.15,2013-03-18 19:54:00,
2013-03-18 15:56:00,79.7,67.3,29.96,SSE,156,4.0,6.0,66,0.00,,,0.00,Wunderground v.1.15,2013-03-18 19:56:00,
2013-03-18 15:58:00,79.7,67.3,29.96,ESE,123,4.0,6.0,66,0.00,,,0.00,Wunderground v.1.15,2013-03-18 19:58:00,
2013-03-18 16:02:00,79.8,67.4,29.96,SSE,162,4.0,5.0,66,0.00,,,0.00,Wunderground v.1.15,2013-03-18 20:02:00,
2013-03-18 16:04:00,79.8,67.0,29.96,SSE,155,5.0,5.0,65,0.00,,,0.00,Wunderground v.1.15,2013-03-18 20:04:00,
2013-03-18 16:05:00,79.9,67.1,29.96,East,97,5.0,6.0,65,0.00,,,0.00,Wunderground v.1.15,2013-03-18 20:05:00,
2013-03-18 16:09:00,80.1,67.3,29.96,SSE,150,5.0,11.0,65,0.00,,,0.00,Wunderground v.1.15,2013-03-18 20:09:00,
2013-03-18 16:11:00,80.0,67.2,29.96,SSE,156,5.0,5.0,65,0.00,,,0.00,Wunderground v.1.15,2013-03-18 20:11:00,
2013-03-18 16:14:00,79.8,67.4,29.96,SSW,198,5.0,8.0,66,0.00,,,0.00,Wunderground v.1.15,2013-03-18 20:14:00,
2013-03-18 16:17:00,79.6,67.2,29.97,ENE,73,5.0,8.0,66,0.00,,,0.00,Wunderground v.1.15,2013-03-18 20:17:00,
2013-03-18 16:19:00,79.4,67.0,29.97,SE,146,5.0,8.0,66,0.00,,,0.00,Wunderground v.1.15,2013-03-18 20:19:00,
2013-03-18 16:20:00,79.4,67.5,29.97,SSW,204,5.0,8.0,67,0.00,,,0.00,Wunderground v.1.15,2013-03-18 20:20:00,
2013-03-18 16:21:00,79.3,67.4,29.97,SSE,166,5.0,8.0,67,0.00,,,0.00,Wunderground v.1.15,2013-03-18 20:21:00,
2013-03-18 16:24:00,79.0,67.1,29.97,South,181,6.0,8.0,67,0.00,,,0.00,Wunderground v.1.15,2013-03-18 20:24:00,
2013-03-18 16:26:00,78.9,67.4,29.97,SE,136,6.0,8.0,68,0.00,,,0.00,Wunderground v.1.15,2013-03-18 20:26:00,
2013-03-18 16:27:00,78.8,67.3,29.97,SE,137,6.0,8.0,68,0.00,,,0.00,Wunderground v.1.15,2013-03-18 20:27:00,
2013-03-18 16:28:00,78.7,67.2,29.97,ESE,123,6.0,8.0,68,0.00,,,0.00,Wunderground v.1.15,2013-03-18 20:28:00,
2013-03-18 16:33:00,78.6,67.6,29.97,ESE,118,4.0,6.0,69,0.00,,,0.00,Wunderground v.1.15,2013-03-18 20:33:00,
2013-03-18 16:35:00,78.6,67.6,29.97,South,179,4.0,6.0,69,0.00,,,0.00,Wunderground v.1.15,2013-03-18 20:35:00,
2013-03-18 16:36:00,78.6,67.6,29.97,SSW,193,4.0,6.0,69,0.00,,,0.00,Wunderground v.1.15,2013-03-18 20:36:00,
2013-03-18 16:37:00,78.5,67.5,29.97,South,181,4.0,6.0,69,0.00,,,0.00,Wunderground v.1.15,2013-03-18 20:37:00,
2013-03-18 16:41:00,78.4,67.8,29.97,SSE,148,3.0,7.0,70,0.00,,,0.00,Wunderground v.1.15,2013-03-18 20:41:00,
2013-03-18 16:43:00,78.3,67.7,29.97,SE,131,3.0,7.0,70,0.00,,,0.00,Wunderground v.1.15,2013-03-18 20:43:00,
2013-03-18 16:45:00,78.1,67.5,29.97,SE,137,4.0,7.0,70,0.00,,,0.00,Wunderground v.1.15,2013-03-18 20:45:00,
2013-03-18 16:46:00,78.1,67.9,29.97,ESE,113,4.0,7.0,71,0.00,,,0.00,Wunderground v.1.15,2013-03-18 20:46:00,
2013-03-18 16:50:00,78.0,67.8,29.98,SE,132,3.0,3.0,71,0.00,,,0.00,Wunderground v.1.15,2013-03-18 20:50:00,
2013-03-18 16:51:00,77.9,67.7,29.98,East,95,3.0,3.0,71,0.00,,,0.00,Wunderground v.1.15,2013-03-18 20:51:00,
2013-03-18 16:52:00,77.9,68.1,29.97,SE,142,3.0,3.0,72,0.00,,,0.00,Wunderground v.1.15,2013-03-18 20:52:00,
2013-03-18 16:57:00,77.7,68.0,29.97,SE,133,3.0,4.0,72,0.00,,,0.00,Wunderground v.1.15,2013-03-18 20:57:00,
2013-03-18 16:58:00,77.8,68.0,29.97,SE,127,3.0,4.0,72,0.00,,,0.00,Wunderground v.1.15,2013-03-18 20:58:00,
2013-03-18 17:00:00,77.7,68.0,29.98,SW,225,3.0,5.0,72,0.00,,,0.00,Wunderground v.1.15,2013-03-18 21:00:00,
2013-03-18 17:02:00,77.6,67.9,29.97,SE,140,3.0,5.0,72,0.00,,,0.00,Wunderground v.1.15,2013-03-18 21:02:00,
2013-03-18 17:04:00,77.5,67.8,29.98,SSW,212,4.0,7.0,72,0.00,,,0.00,Wunderground v.1.15,2013-03-18 21:04:00,
2013-03-18 17:06:00,77.5,68.2,29.98,South,169,4.0,7.0,73,0.00,,,0.00,Wunderground v.1.15,2013-03-18 21:06:00,
2013-03-18 17:07:00,77.4,68.1,29.98,SSW,200,4.0,7.0,73,0.00,,,0.00,Wunderground v.1.15,2013-03-18 21:07:00,
2013-03-18 17:09:00,77.4,68.1,29.97,South,169,4.0,7.0,73,0.00,,,0.00,Wunderground v.1.15,2013-03-18 21:09:00,
2013-03-18 17:12:00,77.3,68.0,29.98,ENE,75,2.0,4.0,73,0.00,,,0.00,Wunderground v.1.15,2013-03-18 21:12:00,
2013-03-18 17:14:00,77.2,67.5,29.98,SE,143,2.0,5.0,72,0.00,,,0.00,Wunderground v.1.15,2013-03-18 21:14:00,
2013-03-18 17:18:00,76.9,68.0,29.97,ESE,117,2.0,5.0,74,0.00,,,0.00,Wunderground v.1.15,2013-03-18 21:18:00,
2013-03-18 17:20:00,76.7,68.2,29.98,SSE,149,2.0,2.0,75,0.00,,,0.00,Wunderground v.1.15,2013-03-18 21:20:00,
2013-03-18 17:22:00,76.5,68.7,29.98,SSE,159,2.0,2.0,77,0.00,,,0.00,Wunderground v.1.15,2013-03-18 21:22:00,
2013-03-18 17:24:00,76.4,68.3,29.98,SSE,149,1.0,2.0,76,0.00,,,0.00,Wunderground v.1.15,2013-03-18 21:24:00,
2013-03-18 17:27:00,76.2,68.1,29.98,SE,127,1.0,3.0,76,0.00,,,0.00,Wunderground v.1.15,2013-03-18 21:27:00,
2013-03-18 17:28:00,76.1,67.6,29.98,SE,143,1.0,3.0,75,0.00,,,0.00,Wunderground v.1.15,2013-03-18 21:28:00,
2013-03-18 17:31:00,76.1,67.6,29.98,SSE,153,2.0,2.0,75,0.00,,,0.00,Wunderground v.1.15,2013-03-18 21:31:00,
2013-03-18 17:35:00,76.1,67.6,29.98,SE,134,2.0,3.0,75,0.00,,,0.00,Wunderground v.1.15,2013-03-18 21:35:00,
2013-03-18 17:37:00,76.1,67.6,29.98,East,79,2.0,4.0,75,0.00,,,0.00,Wunderground v.1.15,2013-03-18 21:37:00,
2013-03-18 17:39:00,76.1,67.6,29.97,South,188,3.0,5.0,75,0.00,,,0.00,Wunderground v.1.15,2013-03-18 21:39:00,
2013-03-18 17:40:00,76.1,67.6,29.97,SE,138,3.0,3.0,75,0.00,,,0.00,Wunderground v.1.15,2013-03-18 21:40:00,
2013-03-18 17:45:00,76.1,68.4,29.97,SE,125,2.0,3.0,77,0.00,,,0.00,Wunderground v.1.15,2013-03-18 21:45:00,
2013-03-18 17:46:00,76.1,68.0,29.97,SE,135,2.0,3.0,76,0.00,,,0.00,Wunderground v.1.15,2013-03-18 21:46:00,
2013-03-18 17:50:00,75.9,67.8,29.97,SSE,167,2.0,5.0,76,0.00,,,0.00,Wunderground v.1.15,2013-03-18 21:50:00,
2013-03-18 17:51:00,75.9,67.8,29.97,ESE,115,2.0,5.0,76,0.00,,,0.00,Wunderground v.1.15,2013-03-18 21:51:00,
2013-03-18 17:53:00,75.9,67.8,29.97,SSE,158,2.0,5.0,76,0.00,,,0.00,Wunderground v.1.15,2013-03-18 21:53:00,
2013-03-18 17:55:00,75.9,68.2,29.97,SSE,148,3.0,5.0,77,0.00,,,0.00,Wunderground v.1.15,2013-03-18 21:55:00,
2013-03-18 17:57:00,75.9,68.2,29.97,South,180,3.0,5.0,77,0.00,,,0.00,Wunderground v.1.15,2013-03-18 21:57:00,
2013-03-18 17:59:00,75.7,68.0,29.96,SE,137,3.0,5.0,77,0.00,,,0.00,Wunderground v.1.15,2013-03-18 21:59:00,
2013-03-18 18:00:00,75.7,68.4,29.96,South,175,3.0,3.0,78,0.00,,,0.00,Wunderground v.1.15,2013-03-18 22:00:00,
2013-03-18 18:02:00,75.6,68.3,29.96,ESE,117,3.0,7.0,78,0.00,,,0.00,Wunderground v.1.15,2013-03-18 22:02:00,
2013-03-18 18:03:00,75.5,68.2,29.96,South,181,3.0,7.0,78,0.00,,,0.00,Wunderground v.1.15,2013-03-18 22:03:00,
2013-03-18 18:05:00,75.3,68.3,29.96,South,179,3.0,7.0,79,0.00,,,0.01,Wunderground v.1.15,2013-03-18 22:05:00,
2013-03-18 18:07:00,75.2,68.6,29.96,ESE,113,3.0,7.0,80,0.00,,,0.01,Wunderground v.1.15,2013-03-18 22:07:00,
2013-03-18 18:11:00,75.0,68.8,29.96,SE,141,3.0,7.0,81,0.00,,,0.01,Wunderground v.1.15,2013-03-18 22:11:00,
2013-03-18 18:12:00,74.9,68.7,29.96,ESE,120,3.0,7.0,81,0.00,,,0.01,Wunderground v.1.15,2013-03-18 22:12:00,
2013-03-18 18:17:00,74.6,68.4,29.97,SE,141,3.0,7.0,81,0.00,,,0.01,Wunderground v.1.15,2013-03-18 22:17:00,
2013-03-18 18:18:00,74.6,68.7,29.97,SE,143,3.0,7.0,82,0.00,,,0.01,Wunderground v.1.15,2013-03-18 22:18:00,
2013-03-18 18:19:00,74.6,68.7,29.97,SSE,165,3.0,7.0,82,0.00,,,0.01,Wunderground v.1.15,2013-03-18 22:19:00,
2013-03-18 18:21:00,74.6,68.7,29.97,ESE,110,3.0,3.0,82,0.00,,,0.01,Wunderground v.1.15,2013-03-18 22:21:00,
2013-03-18 18:24:00,74.5,69.3,29.98,ESE,116,2.0,3.0,84,0.00,,,0.01,Wunderground v.1.15,2013-03-18 22:24:00,
2013-03-18 18:25:00,74.5,69.0,29.98,SSE,148,2.0,3.0,83,0.00,,,0.01,Wunderground v.1.15,2013-03-18 22:25:00,
2013-03-18 18:26:00,74.4,68.9,29.98,SSE,158,1.0,3.0,83,0.00,,,0.01,Wunderground v.1.15,2013-03-18 22:26:00,
2013-03-18 18:27:00,74.5,69.0,29.98,SSW,200,1.0,3.0,83,0.00,,,0.01,Wunderground v.1.15,2013-03-18 22:27:00,
2013-03-18 18:30:00,74.4,68.9,29.98,SSE,159,1.0,5.0,83,0.00,,,0.01,Wunderground v.1.15,2013-03-18 22:30:00,
2013-03-18 18:32:00,74.3,68.4,29.98,SSE,155,1.0,5.0,82,0.00,,,0.01,Wunderground v.1.15,2013-03-18 22:32:00,
2013-03-18 18:36:00,74.2,68.7,29.98,South,177,2.0,5.0,83,0.00,,,0.01,Wunderground v.1.15,2013-03-18 22:36:00,
2013-03-18 18:37:00,74.2,69.1,29.98,SE,143,2.0,5.0,84,0.00,,,0.01,Wunderground v.1.15,2013-03-18 22:37:00,
2013-03-18 18:40:00,74.2,69.1,29.98,ESE,123,2.0,2.0,84,0.00,,,0.01,Wunderground v.1.15,2013-03-18 22:40:00,
2013-03-18 18:41:00,74.1,69.3,29.98,ESE,103,1.0,2.0,85,0.00,,,0.01,Wunderground v.1.15,2013-03-18 22:41:00,
2013-03-18 18:42:00,74.1,69.3,29.98,SSE,155,1.0,2.0,85,0.00,,,0.01,Wunderground v.1.15,2013-03-18 22:42:00,
2013-03-18 18:44:00,74.1,69.3,29.98,SE,146,1.0,2.0,85,0.00,,,0.01,Wunderground v.1.15,2013-03-18 22:44:00,
2013-03-18 18:47:00,74.0,69.2,29.98,South,178,1.0,2.0,85,0.00,,,0.01,Wunderground v.1.15,2013-03-18 22:47:00,
2013-03-18 18:48:00,74.0,69.2,29.98,SSE,167,1.0,2.0,85,0.00,,,0.01,Wunderground v.1.15,2013-03-18 22:48:00,
2013-03-18 18:51:00,73.9,69.1,29.98,SE,134,1.0,2.0,85,0.00,,,0.01,Wunderground v.1.15,2013-03-18 22:51:00,
2013-03-18 18:53:00,73.9,69.4,29.98,SE,138,1.0,2.0,86,0.00,,,0.01,Wunderground v.1.15,2013-03-18 22:53:00,
2013-03-18 18:54:00,73.9,69.1,29.98,SE,143,1.0,2.0,85,0.00,,,0.01,Wunderground v.1.15,2013-03-18 22:54:00,
2013-03-18 18:57:00,73.8,69.0,29.98,SE,139,2.0,2.0,85,0.00,,,0.01,Wunderground v.1.15,2013-03-18 22:57:00,
2013-03-18 18:58:00,73.7,69.2,29.98,ESE,116,1.0,2.0,86,0.00,,,0.01,Wunderground v.1.15,2013-03-18 22:58:00,
2013-03-18 18:59:00,73.7,69.2,29.98,SSE,148,1.0,5.0,86,0.00,,,0.01,Wunderground v.1.15,2013-03-18 22:59:00,
2013-03-18 19:00:00,73.7,69.2,29.98,South,177,2.0,2.0,86,0.00,,,0.01,Wunderground v.1.15,2013-03-18 23:00:00,
2013-03-18 19:06:00,73.6,69.5,29.98,South,181,2.0,4.0,87,0.00,,,0.01,Wunderground v.1.15,2013-03-18 23:06:00,
2013-03-18 19:07:00,73.5,69.4,29.99,SE,145,2.0,4.0,87,0.00,,,0.01,Wunderground v.1.15,2013-03-18 23:07:00,
2013-03-18 19:10:00,73.4,69.3,29.98,SSW,208,2.0,2.0,87,0.00,,,0.01,Wunderground v.1.15,2013-03-18 23:10:00,
2013-03-18 19:11:00,73.4,69.3,29.98,SSE,151,2.0,2.0,87,0.00,,,0.01,Wunderground v.1.15,2013-03-18 23:11:00,
2013-03-18 19:13:00,73.3,69.2,29.99,SE,135,1.0,3.0,87,0.00,,,0.01,Wunderground v.1.15,2013-03-18 23:13:00,
2013-03-18 19:16:00,73.3,69.5,29.99,SE,136,1.0,3.0,88,0.00,,,0.01,Wunderground v.1.15,2013-03-18 23:16:00,
2013-03-18 19:17:00,73.3,69.5,29.99,SE,128,1.0,3.0,88,0.00,,,0.01,Wunderground v.1.15,2013-03-18 23:17:00,
2013-03-18 19:19:00,73.2,69.4,29.99,South,188,1.0,3.0,88,0.00,,,0.01,Wunderground v.1.15,2013-03-18 23:19:00,
2013-03-18 19:22:00,73.2,69.4,29.99,South,186,1.0,1.0,88,0.00,,,0.02,Wunderground v.1.15,2013-03-18 23:22:00,
2013-03-18 19:23:00,73.2,69.4,29.99,SE,141,1.0,1.0,88,0.00,,,0.02,Wunderground v.1.15,2013-03-18 23:23:00,
2013-03-18 19:27:00,73.1,69.3,29.99,SSE,161,0.0,1.0,88,0.00,,,0.02,Wunderground v.1.15,2013-03-18 23:27:00,
2013-03-18 19:30:00,73.0,69.6,29.99,South,174,0.0,0.0,89,0.00,,,0.02,Wunderground v.1.15,2013-03-18 23:30:00,
2013-03-18 19:33:00,72.9,69.5,29.99,WNW,282,0.0,0.0,89,0.00,,,0.02,Wunderground v.1.15,2013-03-18 23:33:00,
2013-03-18 19:36:00,72.8,69.4,29.99,WNW,282,0.0,0.0,89,0.00,,,0.02,Wunderground v.1.15,2013-03-18 23:36:00,
2013-03-18 19:38:00,72.7,69.3,29.99,WNW,282,0.0,0.0,89,0.00,,,0.02,Wunderground v.1.15,2013-03-18 23:38:00,
2013-03-18 19:40:00,72.7,69.6,29.99,West,281,0.0,0.0,90,0.00,,,0.02,Wunderground v.1.15,2013-03-18 23:40:00,
2013-03-18 19:44:00,72.6,69.5,29.99,West,268,0.0,0.0,90,0.00,,,0.02,Wunderground v.1.15,2013-03-18 23:44:00,
2013-03-18 19:46:00,72.6,69.5,29.99,West,267,0.0,0.0,90,0.00,,,0.02,Wunderground v.1.15,2013-03-18 23:46:00,
2013-03-18 19:49:00,72.3,68.5,30.00,NW,323,1.0,9.0,88,0.00,,,0.02,Wunderground v.1.15,2013-03-18 23:49:00,
2013-03-18 19:52:00,71.4,67.7,30.00,NNW,344,3.0,9.0,88,0.00,,,0.02,Wunderground v.1.15,2013-03-18 23:52:00,
2013-03-18 19:53:00,71.1,67.4,30.00,NNW,337,4.0,9.0,88,0.00,,,0.02,Wunderground v.1.15,2013-03-18 23:53:00,
2013-03-18 19:54:00,70.9,67.2,30.00,NW,326,4.0,9.0,88,0.00,,,0.02,Wunderground v.1.15,2013-03-18 23:54:00,
2013-03-18 19:58:00,70.0,66.9,30.00,NNW,333,7.0,9.0,90,0.00,,,0.02,Wunderground v.1.15,2013-03-18 23:58:00,
2013-03-18 20:01:00,69.4,66.0,30.00,NW,326,7.0,9.0,89,0.00,,,0.02,Wunderground v.1.15,2013-03-19 00:01:00,
2013-03-18 20:02:00,69.2,66.1,30.00,NNW,329,7.0,9.0,90,0.00,,,0.02,Wunderground v.1.15,2013-03-19 00:02:00,
2013-03-18 20:05:00,68.8,65.7,30.00,NW,311,7.0,10.0,90,0.00,,,0.02,Wunderground v.1.15,2013-03-19 00:05:00,
2013-03-18 20:06:00,68.7,66.0,30.00,NW,316,7.0,10.0,91,0.00,,,0.03,Wunderground v.1.15,2013-03-19 00:06:00,
2013-03-18 20:07:00,68.6,65.9,30.00,NW,312,7.0,10.0,91,0.00,,,0.03,Wunderground v.1.15,2013-03-19 00:07:00,
2013-03-18 20:13:00,68.2,65.5,30.00,NNW,343,6.0,7.0,91,0.00,,,0.03,Wunderground v.1.15,2013-03-19 00:13:00,
2013-03-18 20:14:00,68.1,65.7,30.00,NNW,332,5.0,10.0,92,0.00,,,0.03,Wunderground v.1.15,2013-03-19 00:14:00,
2013-03-18 20:17:00,68.0,65.6,29.99,NNW,327,6.0,10.0,92,0.00,,,0.03,Wunderground v.1.15,2013-03-19 00:17:00,
2013-03-18 20:21:00,67.9,65.5,30.00,NW,321,6.0,6.0,92,0.00,,,0.03,Wunderground v.1.15,2013-03-19 00:21:00,
2013-03-18 20:22:00,67.9,65.5,30.00,NNW,339,6.0,6.0,92,0.00,,,0.03,Wunderground v.1.15,2013-03-19 00:22:00,
2013-03-18 20:23:00,67.9,65.8,30.00,NW,311,6.0,6.0,93,0.00,,,0.03,Wunderground v.1.15,2013-03-19 00:23:00,
2013-03-18 20:27:00,67.8,65.7,30.00,NW,323,4.0,6.0,93,0.00,,,0.03,Wunderground v.1.15,2013-03-19 00:27:00,
2013-03-18 20:30:00,67.8,65.7,29.99,NW,311,3.0,5.0,93,0.00,,,0.03,Wunderground v.1.15,2013-03-19 00:30:00,
2013-03-18 20:31:00,67.8,65.7,29.99,North,359,3.0,5.0,93,0.00,,,0.03,Wunderground v.1.15,2013-03-19 00:31:00,
2013-03-18 20:33:00,67.7,65.6,29.99,NW,319,3.0,5.0,93,0.00,,,0.03,Wunderground v.1.15,2013-03-19 00:33:00,
2013-03-18 20:35:00,67.7,65.6,29.99,NW,321,3.0,5.0,93,0.00,,,0.03,Wunderground v.1.15,2013-03-19 00:35:00,
2013-03-18 20:39:00,67.8,65.7,29.99,NNW,334,3.0,5.0,93,0.00,,,0.03,Wunderground v.1.15,2013-03-19 00:39:00,
2013-03-18 20:40:00,67.7,65.6,29.99,NW,321,3.0,4.0,93,0.00,,,0.03,Wunderground v.1.15,2013-03-19 00:40:00,
2013-03-18 20:41:00,67.8,65.7,29.99,NW,308,3.0,4.0,93,0.00,,,0.03,Wunderground v.1.15,2013-03-19 00:41:00,
2013-03-18 20:46:00,67.7,65.6,29.99,NNW,330,4.0,5.0,93,0.00,,,0.03,Wunderground v.1.15,2013-03-19 00:46:00,
2013-03-18 20:47:00,67.7,65.6,29.99,NW,319,4.0,5.0,93,0.00,,,0.03,Wunderground v.1.15,2013-03-19 00:47:00,
2013-03-18 20:48:00,67.7,65.6,29.99,NW,317,4.0,6.0,93,0.00,,,0.03,Wunderground v.1.15,2013-03-19 00:48:00,
2013-03-18 20:51:00,67.7,65.6,30.00,NNW,331,4.0,6.0,93,0.00,,,0.03,Wunderground v.1.15,2013-03-19 00:51:00,
2013-03-18 20:54:00,67.7,65.6,30.00,NNW,328,4.0,6.0,93,0.00,,,0.03,Wunderground v.1.15,2013-03-19 00:54:00,
2013-03-18 20:57:00,67.7,65.6,30.00,NW,323,4.0,6.0,93,0.00,,,0.03,Wunderground v.1.15,2013-03-19 00:57:00,
2013-03-18 20:58:00,67.7,65.6,30.00,NW,326,4.0,6.0,93,0.00,,,0.03,Wunderground v.1.15,2013-03-19 00:58:00,
2013-03-18 21:00:00,67.7,65.6,30.00,NW,324,3.0,3.0,93,0.00,,,0.03,Wunderground v.1.15,2013-03-19 01:00:00,
2013-03-18 21:03:00,67.7,65.6,30.00,North,10,3.0,3.0,93,0.00,,,0.03,Wunderground v.1.15,2013-03-19 01:03:00,
2013-03-18 21:06:00,67.6,65.5,30.00,NNW,333,2.0,3.0,93,0.00,,,0.03,Wunderground v.1.15,2013-03-19 01:06:00,
2013-03-18 21:07:00,67.7,65.6,30.00,NW,324,2.0,3.0,93,0.00,,,0.03,Wunderground v.1.15,2013-03-19 01:07:00,
2013-03-18 21:08:00,67.7,65.6,30.00,NNW,327,3.0,3.0,93,0.00,,,0.03,Wunderground v.1.15,2013-03-19 01:08:00,
2013-03-18 21:10:00,67.7,65.6,30.00,NNW,333,3.0,4.0,93,0.00,,,0.03,Wunderground v.1.15,2013-03-19 01:10:00,
2013-03-18 21:13:00,67.7,65.6,30.00,NW,319,3.0,4.0,93,0.00,,,0.03,Wunderground v.1.15,2013-03-19 01:13:00,
2013-03-18 21:14:00,67.7,65.6,30.00,NNW,328,3.0,4.0,93,0.00,,,0.03,Wunderground v.1.15,2013-03-19 01:14:00,
2013-03-18 21:16:00,67.7,65.6,29.99,NNW,343,3.0,4.0,93,0.00,,,0.03,Wunderground v.1.15,2013-03-19 01:16:00,
2013-03-18 21:17:00,67.7,65.6,29.99,NW,326,3.0,4.0,93,0.00,,,0.03,Wunderground v.1.15,2013-03-19 01:17:00,
2013-03-18 21:18:00,67.7,65.6,29.99,NNW,347,3.0,4.0,93,0.00,,,0.03,Wunderground v.1.15,2013-03-19 01:18:00,
2013-03-18 21:20:00,67.7,65.6,29.99,NNE,33,2.0,2.0,93,0.00,,,0.03,Wunderground v.1.15,2013-03-19 01:20:00,
2013-03-18 21:24:00,67.7,65.6,29.99,NW,319,1.0,2.0,93,0.00,,,0.03,Wunderground v.1.15,2013-03-19 01:24:00,
2013-03-18 21:26:00,67.6,65.5,29.99,NNW,343,1.0,2.0,93,0.00,,,0.03,Wunderground v.1.15,2013-03-19 01:26:00,
2013-03-18 21:31:00,67.6,65.5,29.99,NNW,328,1.0,1.0,93,0.00,,,0.03,Wunderground v.1.15,2013-03-19 01:31:00,
2013-03-18 21:33:00,67.6,65.5,29.99,NW,314,1.0,1.0,93,0.00,,,0.03,Wunderground v.1.15,2013-03-19 01:33:00,
2013-03-18 21:34:00,67.5,65.4,29.99,NW,314,1.0,1.0,93,0.00,,,0.03,Wunderground v.1.15,2013-03-19 01:34:00,
2013-03-18 21:37:00,67.5,65.7,29.99,NW,314,1.0,1.0,94,0.00,,,0.03,Wunderground v.1.15,2013-03-19 01:37:00,
2013-03-18 21:38:00,67.5,65.7,29.99,NW,314,0.0,1.0,94,0.00,,,0.03,Wunderground v.1.15,2013-03-19 01:38:00,
2013-03-18 21:40:00,67.5,65.7,29.99,NW,314,0.0,3.0,94,0.00,,,0.03,Wunderground v.1.15,2013-03-19 01:40:00,
2013-03-18 21:43:00,67.5,65.7,29.99,North,4,1.0,3.0,94,0.00,,,0.03,Wunderground v.1.15,2013-03-19 01:43:00,
2013-03-18 21:44:00,67.5,65.7,29.99,NNW,343,1.0,3.0,94,0.00,,,0.03,Wunderground v.1.15,2013-03-19 01:44:00,
2013-03-18 21:46:00,67.5,65.7,29.99,East,82,1.0,3.0,94,0.00,,,0.03,Wunderground v.1.15,2013-03-19 01:46:00,
2013-03-18 21:48:00,67.6,65.8,29.99,East,82,1.0,3.0,94,0.00,,,0.03,Wunderground v.1.15,2013-03-19 01:48:00,
2013-03-18 21:50:00,67.6,65.8,29.99,East,80,1.0,1.0,94,0.00,,,0.03,Wunderground v.1.15,2013-03-19 01:50:00,
2013-03-18 21:53:00,67.5,65.7,29.99,East,80,0.0,1.0,94,0.00,,,0.03,Wunderground v.1.15,2013-03-19 01:53:00,
2013-03-18 21:56:00,67.5,65.7,29.99,East,80,0.0,1.0,94,0.00,,,0.03,Wunderground v.1.15,2013-03-19 01:56:00,
2013-03-18 21:58:00,67.5,65.7,29.99,North,350,0.0,1.0,94,0.00,,,0.03,Wunderground v.1.15,2013-03-19 01:58:00,
2013-03-18 21:59:00,67.5,65.7,29.99,NNW,339,0.0,1.0,94,0.00,,,0.03,Wunderground v.1.15,2013-03-19 01:59:00,
2013-03-18 22:01:00,67.5,65.7,29.99,NW,322,0.0,2.0,94,0.00,,,0.03,Wunderground v.1.15,2013-03-19 02:01:00,
2013-03-18 22:03:00,67.5,65.7,29.99,NNW,327,1.0,2.0,94,0.00,,,0.03,Wunderground v.1.15,2013-03-19 02:03:00,
2013-03-18 22:04:00,67.5,65.7,29.99,NW,311,1.0,2.0,94,0.00,,,0.03,Wunderground v.1.15,2013-03-19 02:04:00,
2013-03-18 22:08:00,67.6,65.8,29.99,NNW,336,1.0,2.0,94,0.00,,,0.03,Wunderground v.1.15,2013-03-19 02:08:00,
2013-03-18 22:09:00,67.6,65.8,29.99,NNW,340,1.0,2.0,94,0.00,,,0.03,Wunderground v.1.15,2013-03-19 02:09:00,
2013-03-18 22:13:00,67.6,65.8,29.99,ESE,108,0.0,1.0,94,0.00,,,0.03,Wunderground v.1.15,2013-03-19 02:13:00,
2013-03-18 22:14:00,67.7,65.9,29.99,ESE,108,0.0,1.0,94,0.00,,,0.03,Wunderground v.1.15,2013-03-19 02:14:00,
2013-03-18 22:17:00,67.7,65.9,29.99,ESE,108,0.0,1.0,94,0.00,,,0.03,Wunderground v.1.15,2013-03-19 02:17:00,
2013-03-18 22:19:00,67.7,65.9,29.99,ESE,108,0.0,1.0,94,0.00,,,0.03,Wunderground v.1.15,2013-03-19 02:19:00,
2013-03-18 22:21:00,67.7,65.9,29.99,ESE,108,0.0,0.0,94,0.00,,,0.03,Wunderground v.1.15,2013-03-19 02:21:00,
2013-03-18 22:24:00,67.7,65.9,29.99,ESE,108,0.0,0.0,94,0.00,,,0.03,Wunderground v.1.15,2013-03-19 02:24:00,
2013-03-18 22:25:00,67.7,65.9,29.99,ESE,108,0.0,0.0,94,0.00,,,0.03,Wunderground v.1.15,2013-03-19 02:25:00,
2013-03-18 22:27:00,67.7,65.9,29.99,ESE,108,0.0,0.0,94,0.00,,,0.03,Wunderground v.1.15,2013-03-19 02:27:00,
2013-03-18 22:31:00,67.7,65.9,30.00,ESE,108,0.0,0.0,94,0.00,,,0.03,Wunderground v.1.15,2013-03-19 02:31:00,
2013-03-18 22:32:00,67.7,65.9,30.00,ESE,108,0.0,0.0,94,0.00,,,0.03,Wunderground v.1.15,2013-03-19 02:32:00,
2013-03-18 22:33:00,67.7,65.9,29.99,ESE,108,0.0,0.0,94,0.00,,,0.03,Wunderground v.1.15,2013-03-19 02:33:00,
2013-03-18 22:34:00,67.7,65.9,29.99,ESE,108,0.0,0.0,94,0.00,,,0.03,Wunderground v.1.15,2013-03-19 02:34:00,
2013-03-18 22:38:00,67.7,65.9,30.00,ESE,108,0.0,0.0,94,0.00,,,0.03,Wunderground v.1.15,2013-03-19 02:38:00,
2013-03-18 22:40:00,67.7,65.9,30.00,ESE,108,0.0,0.0,94,0.00,,,0.03,Wunderground v.1.15,2013-03-19 02:40:00,
2013-03-18 22:42:00,67.8,66.0,30.00,ESE,108,0.0,0.0,94,0.00,,,0.03,Wunderground v.1.15,2013-03-19 02:42:00,
2013-03-18 22:43:00,67.8,66.0,30.00,ESE,108,0.0,0.0,94,0.00,,,0.03,Wunderground v.1.15,2013-03-19 02:43:00,
2013-03-18 22:46:00,67.9,66.1,30.00,ESE,108,0.0,0.0,94,0.00,,,0.03,Wunderground v.1.15,2013-03-19 02:46:00,
2013-03-18 22:48:00,67.9,66.1,30.00,ESE,108,0.0,0.0,94,0.00,,,0.03,Wunderground v.1.15,2013-03-19 02:48:00,
2013-03-18 22:49:00,67.9,66.1,30.00,ESE,108,0.0,0.0,94,0.00,,,0.03,Wunderground v.1.15,2013-03-19 02:49:00,
2013-03-18 22:52:00,68.0,66.2,30.00,ESE,108,0.0,0.0,94,0.00,,,0.03,Wunderground v.1.15,2013-03-19 02:52:00,
2013-03-18 22:54:00,68.0,66.2,30.00,ESE,108,0.0,0.0,94,0.00,,,0.03,Wunderground v.1.15,2013-03-19 02:54:00,
2013-03-18 22:56:00,68.1,66.3,30.00,SE,139,0.0,1.0,94,0.00,,,0.03,Wunderground v.1.15,2013-03-19 02:56:00,
2013-03-18 22:57:00,68.1,66.3,30.00,SE,125,0.0,1.0,94,0.00,,,0.03,Wunderground v.1.15,2013-03-19 02:57:00,
2013-03-18 23:01:00,68.1,66.0,29.99,SE,126,0.0,0.0,93,0.00,,,0.03,Wunderground v.1.15,2013-03-19 03:01:00,
2013-03-18 23:03:00,68.2,66.1,29.99,SE,127,0.0,0.0,93,0.00,,,0.03,Wunderground v.1.15,2013-03-19 03:03:00,
2013-03-18 23:07:00,68.2,66.1,29.99,SE,126,0.0,0.0,93,0.00,,,0.03,Wunderground v.1.15,2013-03-19 03:07:00,
2013-03-18 23:08:00,68.2,66.1,29.99,ESE,121,0.0,0.0,93,0.00,,,0.03,Wunderground v.1.15,2013-03-19 03:08:00,
2013-03-18 23:10:00,68.2,66.1,29.99,ESE,118,0.0,0.0,93,0.00,,,0.03,Wunderground v.1.15,2013-03-19 03:10:00,
2013-03-18 23:11:00,68.2,66.1,29.99,ESE,118,0.0,0.0,93,0.00,,,0.03,Wunderground v.1.15,2013-03-19 03:11:00,
2013-03-18 23:13:00,68.2,66.1,29.99,ESE,118,0.0,0.0,93,0.00,,,0.03,Wunderground v.1.15,2013-03-19 03:13:00,
2013-03-18 23:16:00,68.2,66.1,29.99,SE,131,0.0,0.0,93,0.00,,,0.03,Wunderground v.1.15,2013-03-19 03:16:00,
2013-03-18 23:17:00,68.2,66.1,29.99,SE,131,0.0,0.0,93,0.00,,,0.03,Wunderground v.1.15,2013-03-19 03:17:00,
2013-03-18 23:21:00,68.3,66.5,29.99,SE,126,0.0,1.0,94,0.00,,,0.03,Wunderground v.1.15,2013-03-19 03:21:00,
2013-03-18 23:22:00,68.3,66.5,29.99,SSE,155,0.0,1.0,94,0.00,,,0.03,Wunderground v.1.15,2013-03-19 03:22:00,
2013-03-18 23:23:00,68.3,66.5,29.99,ESE,117,0.0,1.0,94,0.00,,,0.03,Wunderground v.1.15,2013-03-19 03:23:00,
2013-03-18 23:27:00,68.3,66.2,29.99,East,101,0.0,1.0,93,0.00,,,0.03,Wunderground v.1.15,2013-03-19 03:27:00,
2013-03-18 23:28:00,68.3,66.2,29.99,SE,125,0.0,1.0,93,0.00,,,0.03,Wunderground v.1.15,2013-03-19 03:28:00,
2013-03-18 23:31:00,68.3,66.2,29.99,ESE,120,0.0,1.0,93,0.00,,,0.03,Wunderground v.1.15,2013-03-19 03:31:00,
2013-03-18 23:32:00,68.3,66.2,29.99,ESE,115,0.0,1.0,93,0.00,,,0.03,Wunderground v.1.15,2013-03-19 03:32:00,
2013-03-18 23:33:00,68.3,66.2,29.99,ESE,115,0.0,1.0,93,0.00,,,0.03,Wunderground v.1.15,2013-03-19 03:33:00,
2013-03-18 23:36:00,68.3,66.2,29.99,ESE,121,0.0,1.0,93,0.00,,,0.03,Wunderground v.1.15,2013-03-19 03:36:00,
2013-03-18 23:37:00,68.3,66.2,29.99,ESE,121,0.0,1.0,93,0.00,,,0.03,Wunderground v.1.15,2013-03-19 03:37:00,
2013-03-18 23:39:00,68.3,66.2,29.98,SSE,147,0.0,1.0,93,0.00,,,0.03,Wunderground v.1.15,2013-03-19 03:39:00,
2013-03-18 23:42:00,68.3,66.2,29.98,SE,132,0.0,0.0,93,0.00,,,0.03,Wunderground v.1.15,2013-03-19 03:42:00,
2013-03-18 23:45:00,68.3,66.2,29.98,SE,126,0.0,0.0,93,0.00,,,0.03,Wunderground v.1.15,2013-03-19 03:45:00,
2013-03-18 23:50:00,68.4,66.3,29.98,ESE,119,0.0,1.0,93,0.00,,,0.03,Wunderground v.1.15,2013-03-19 03:50:00,
2013-03-18 23:51:00,68.4,66.3,29.98,SSE,150,0.0,1.0,93,0.00,,,0.03,Wunderground v.1.15,2013-03-19 03:51:00,
2013-03-18 23:56:00,68.4,66.3,29.97,SSE,153,1.0,1.0,93,0.00,,,0.03,Wunderground v.1.15,2013-03-19 03:56:00,
2013-03-18 23:58:00,68.4,66.3,29.97,SE,138,1.0,1.0,93,0.00,,,0.03,Wunderground v.1.15,2013-03-19 03:58:00,